Time,TemperatureF,DewpointF,PressureIn,WindDirection,WindDirectionDegrees,WindSpeedMPH,WindSpeedGustMPH,Humidity,HourlyPrecipIn,Conditions,Clouds,dailyrainin,SolarRadiationWatts/m^2,SoftwareType,DateUTC
2013-08-06 00:03:00,76.7,74.2,29.77,NE,48,0.0,1.2,92,0.00,CLR,,0.00,0.0,WeatherDisplay:10.37,2013-08-06 05:03:00,
2013-08-06 00:04:00,76.7,74.2,29.77,NE,48,0.0,0.0,92,0.00,CLR,,0.00,0.0,WeatherDisplay:10.37,2013-08-06 05:04:00,
2013-08-06 00:08:00,76.8,74.3,29.77,NE,48,0.0,0.0,92,0.00,CLR,,0.00,0.0,WeatherDisplay:10.37,2013-08-06 05:08:00,
2013-08-06 00:09:00,76.7,74.2,29.77,NE,48,0.0,0.0,92,0.00,CLR,,0.00,0.0,WeatherDisplay:10.37,2013-08-06 05:09:00,
2013-08-06 00:10:00,76.8,74.3,29.77,NE,48,0.0,0.0,92,0.00,CLR,,0.00,0.0,WeatherDisplay:10.37,2013-08-06 05:10:00,
2013-08-06 00:14:00,76.9,74.4,29.77,NE,48,0.0,0.0,92,0.00,CLR,,0.00,0.0,WeatherDisplay:10.37,2013-08-06 05:14:00,
2013-08-06 00:15:00,76.8,74.3,29.77,NE,48,0.1,1.2,92,0.00,CLR,,0.00,0.0,WeatherDisplay:10.37,2013-08-06 05:15:00,
2013-08-06 00:16:00,76.9,74.4,29.77,NE,48,0.2,1.2,92,0.00,CLR,,0.00,0.0,WeatherDisplay:10.37,2013-08-06 05:16:00,
2013-08-06 00:19:00,76.8,74.3,29.76,NE,48,0.0,1.2,92,0.00,CLR,,0.00,0.0,WeatherDisplay:10.37,2013-08-06 05:19:00,
2013-08-06 00:21:00,76.8,74.3,29.76,NE,48,0.1,1.2,92,0.00,CLR,,0.00,0.0,WeatherDisplay:10.37,2013-08-06 05:21:00,
2013-08-06 00:24:00,76.9,74.1,29.76,NE,48,0.1,1.0,91,0.00,CLR,,0.00,0.0,WeatherDisplay:10.37,2013-08-06 05:24:00,
2013-08-06 00:26:00,76.9,74.4,29.76,NE,48,0.0,1.2,92,0.00,CLR,,0.00,0.0,WeatherDisplay:10.37,2013-08-06 05:26:00,
2013-08-06 00:29:00,76.9,74.1,29.76,ESE,105,0.1,2.3,91,0.00,CLR,,0.00,0.0,WeatherDisplay:10.37,2013-08-06 05:29:00,
2013-08-06 00:30:00,76.9,74.1,29.76,East,94,0.2,1.2,91,0.00,CLR,,0.00,0.0,WeatherDisplay:10.37,2013-08-06 05:30:00,
2013-08-06 00:31:00,76.9,74.1,29.76,ESE,105,0.8,2.3,91,0.00,CLR,,0.00,0.0,WeatherDisplay:10.37,2013-08-06 05:31:00,
2013-08-06 00:32:00,76.9,74.1,29.76,ESE,105,1.0,3.5,91,0.00,CLR,,0.00,0.0,WeatherDisplay:10.37,2013-08-06 05:32:00,
2013-08-06 00:34:00,77.0,74.2,29.75,East,92,1.0,2.3,91,0.00,CLR,,0.00,0.0,WeatherDisplay:10.37,2013-08-06 05:34:00,
2013-08-06 00:35:00,77.1,74.3,29.75,ENE,61,0.4,2.3,91,0.00,CLR,,0.00,0.0,WeatherDisplay:10.37,2013-08-06 05:35:00,
2013-08-06 00:36:00,77.1,74.3,29.75,East,101,0.9,2.3,91,0.00,CLR,,0.00,0.0,WeatherDisplay:10.37,2013-08-06 05:36:00,
2013-08-06 00:37:00,77.2,74.4,29.75,East,101,0.0,1.2,91,0.00,CLR,,0.00,0.0,WeatherDisplay:10.37,2013-08-06 05:37:00,
2013-08-06 00:39:00,77.2,74.4,29.75,ENE,71,0.7,2.3,91,0.00,CLR,,0.00,0.0,WeatherDisplay:10.37,2013-08-06 05:39:00,
2013-08-06 00:40:00,77.2,74.0,29.75,ENE,71,0.1,1.2,90,0.00,CLR,,0.00,0.0,WeatherDisplay:10.37,2013-08-06 05:40:00,
2013-08-06 00:41:00,77.3,74.1,29.75,ENE,77,0.7,2.3,90,0.00,CLR,,0.00,0.0,WeatherDisplay:10.37,2013-08-06 05:41:00,
2013-08-06 00:42:00,77.3,74.1,29.75,ENE,77,0.8,2.3,90,0.00,CLR,,0.00,0.0,WeatherDisplay:10.37,2013-08-06 05:42:00,
2013-08-06 00:44:00,77.3,74.1,29.75,ENE,63,0.3,1.2,90,0.00,CLR,,0.00,0.0,WeatherDisplay:10.37,2013-08-06 05:44:00,
2013-08-06 00:45:00,77.3,74.1,29.75,ENE,63,0.2,1.2,90,0.00,CLR,,0.00,0.0,WeatherDisplay:10.37,2013-08-06 05:45:00,
2013-08-06 00:46:00,77.3,74.1,29.75,South,174,0.6,1.2,90,0.00,CLR,,0.00,0.0,WeatherDisplay:10.37,2013-08-06 05:46:00,
2013-08-06 00:47:00,77.4,74.2,29.75,South,174,0.0,2.3,90,0.00,CLR,,0.00,0.0,WeatherDisplay:10.37,2013-08-06 05:47:00,
2013-08-06 00:48:00,77.4,74.2,29.75,South,174,0.0,0.0,90,0.00,CLR,,0.00,0.0,WeatherDisplay:10.37,2013-08-06 05:48:00,
2013-08-06 00:50:00,77.4,74.2,29.75,ESE,104,0.6,2.3,90,0.00,CLR,,0.00,0.0,WeatherDisplay:10.37,2013-08-06 05:50:00,
2013-08-06 00:51:00,77.4,74.2,29.75,ENE,63,1.2,2.3,90,0.00,CLR,,0.00,0.0,WeatherDisplay:10.37,2013-08-06 05:51:00,
2013-08-06 00:52:00,77.4,74.2,29.75,ENE,60,1.5,3.5,90,0.00,CLR,,0.00,0.0,WeatherDisplay:10.37,2013-08-06 05:52:00,
2013-08-06 00:53:00,77.4,74.2,29.75,NE,46,1.8,3.5,90,0.00,CLR,,0.00,0.0,WeatherDisplay:10.37,2013-08-06 05:53:00,
2013-08-06 00:55:00,77.4,74.2,29.75,NE,44,0.8,3.5,90,0.00,CLR,,0.00,0.0,WeatherDisplay:10.37,2013-08-06 05:55:00,
2013-08-06 00:56:00,77.5,74.3,29.75,NNE,25,1.8,3.5,90,0.00,CLR,,0.00,0.0,WeatherDisplay:10.37,2013-08-06 05:56:00,
2013-08-06 00:58:00,77.5,74.3,29.75,NE,49,0.7,2.3,90,0.00,CLR,,0.00,0.0,WeatherDisplay:10.37,2013-08-06 05:58:00,
2013-08-06 01:00:00,77.5,74.3,29.75,NE,45,1.8,3.5,90,0.00,CLR,,0.00,0.0,WeatherDisplay:10.37,2013-08-06 06:00:00,
2013-08-06 01:02:00,77.5,74.3,29.75,NE,53,0.3,3.5,90,0.00,CLR,,0.00,0.0,WeatherDisplay:10.37,2013-08-06 06:02:00,
2013-08-06 01:03:00,77.5,74.3,29.75,East,97,0.4,2.3,90,0.00,CLR,,0.00,0.0,WeatherDisplay:10.37,2013-08-06 06:03:00,
2013-08-06 01:05:00,77.5,74.3,29.75,ESE,115,0.6,2.3,90,0.00,CLR,,0.00,0.0,WeatherDisplay:10.37,2013-08-06 06:05:00,
2013-08-06 01:07:00,77.5,74.3,29.75,ENE,57,1.3,4.0,90,0.00,CLR,,0.00,0.0,WeatherDisplay:10.37,2013-08-06 06:07:00,
2013-08-06 01:08:00,77.5,74.3,29.75,NE,38,3.0,3.5,90,0.00,CLR,,0.00,0.0,WeatherDisplay:10.37,2013-08-06 06:08:00,
2013-08-06 01:09:00,77.5,74.3,29.75,NE,38,1.8,3.5,90,0.00,CLR,,0.00,0.0,WeatherDisplay:10.37,2013-08-06 06:09:00,
2013-08-06 01:10:00,77.5,74.3,29.74,NE,37,0.3,4.0,90,0.00,CLR,,0.00,0.0,WeatherDisplay:10.37,2013-08-06 06:10:00,
2013-08-06 01:11:00,77.5,74.3,29.74,NNE,24,1.2,5.0,90,0.00,CLR,,0.00,0.0,WeatherDisplay:10.37,2013-08-06 06:11:00,
2013-08-06 01:12:00,77.5,74.3,29.74,ENE,74,0.8,4.6,90,0.00,CLR,,0.00,0.0,WeatherDisplay:10.37,2013-08-06 06:12:00,
2013-08-06 01:13:00,77.5,74.3,29.74,ENE,74,0.0,0.0,90,0.00,CLR,,0.00,0.0,WeatherDisplay:10.37,2013-08-06 06:13:00,
2013-08-06 01:14:00,77.5,74.3,29.74,ENE,74,0.1,1.0,90,0.00,CLR,,0.00,0.0,WeatherDisplay:10.37,2013-08-06 06:14:00,
2013-08-06 01:16:00,77.5,74.3,29.74,ENE,74,0.2,1.2,90,0.00,CLR,,0.00,0.0,WeatherDisplay:10.37,2013-08-06 06:16:00,
2013-08-06 01:17:00,77.5,74.3,29.74,NE,41,1.2,3.5,90,0.00,CLR,,0.00,0.0,WeatherDisplay:10.37,2013-08-06 06:17:00,
2013-08-06 01:18:00,77.5,74.3,29.75,NE,41,0.3,1.2,90,0.00,CLR,,0.00,0.0,WeatherDisplay:10.37,2013-08-06 06:18:00,
2013-08-06 01:19:00,77.4,74.2,29.75,North,10,1.6,1.6,90,0.00,CLR,,0.00,0.0,WeatherDisplay:10.37,2013-08-06 06:19:00,
2013-08-06 01:21:00,77.4,74.2,29.75,North,10,0.9,3.5,90,0.00,CLR,,0.00,0.0,WeatherDisplay:10.37,2013-08-06 06:21:00,
2013-08-06 01:22:00,77.5,74.3,29.75,ENE,74,0.4,1.2,90,0.00,CLR,,0.00,0.0,WeatherDisplay:10.37,2013-08-06 06:22:00,
2013-08-06 01:23:00,77.4,74.2,29.75,ENE,74,0.6,1.2,90,0.00,CLR,,0.00,0.0,WeatherDisplay:10.37,2013-08-06 06:23:00,
2013-08-06 01:24:00,77.4,74.2,29.75,ENE,57,0.9,2.3,90,0.00,CLR,,0.00,0.0,WeatherDisplay:10.37,2013-08-06 06:24:00,
2013-08-06 01:26:00,77.5,74.3,29.76,East,100,0.2,2.3,90,0.00,CLR,,0.00,0.0,WeatherDisplay:10.37,2013-08-06 06:26:00,
2013-08-06 01:27:00,77.4,74.2,29.76,East,100,0.1,2.3,90,0.00,CLR,,0.00,0.0,WeatherDisplay:10.37,2013-08-06 06:27:00,
2013-08-06 01:28:00,77.4,74.2,29.75,East,100,0.3,1.2,90,0.00,CLR,,0.00,0.0,WeatherDisplay:10.37,2013-08-06 06:28:00,
2013-08-06 01:30:00,77.4,74.2,29.75,East,99,0.8,2.3,90,0.00,CLR,,0.00,0.0,WeatherDisplay:10.37,2013-08-06 06:30:00,
2013-08-06 01:32:00,77.4,74.2,29.75,ENE,57,0.8,1.2,90,0.00,CLR,,0.00,0.0,WeatherDisplay:10.37,2013-08-06 06:32:00,
2013-08-06 01:33:00,77.4,74.2,29.75,SE,127,0.8,4.0,90,0.00,CLR,,0.00,0.0,WeatherDisplay:10.37,2013-08-06 06:33:00,
2013-08-06 01:34:00,77.4,74.2,29.75,NE,34,1.7,3.0,90,0.00,CLR,,0.00,0.0,WeatherDisplay:10.37,2013-08-06 06:34:00,
2013-08-06 01:35:00,77.4,74.2,29.74,ENE,58,1.9,4.6,90,0.00,CLR,,0.00,0.0,WeatherDisplay:10.37,2013-08-06 06:35:00,
2013-08-06 01:37:00,77.4,74.2,29.74,SSE,165,0.9,4.6,90,0.00,CLR,,0.00,0.0,WeatherDisplay:10.37,2013-08-06 06:37:00,
2013-08-06 01:39:00,77.4,74.2,29.74,SSE,165,0.1,1.2,90,0.00,CLR,,0.00,0.0,WeatherDisplay:10.37,2013-08-06 06:39:00,
2013-08-06 01:40:00,77.4,74.2,29.73,ENE,57,0.3,1.0,90,0.00,CLR,,0.00,0.0,WeatherDisplay:10.37,2013-08-06 06:40:00,
2013-08-06 01:42:00,77.3,74.1,29.73,East,94,0.3,1.2,90,0.00,CLR,,0.00,0.0,WeatherDisplay:10.37,2013-08-06 06:42:00,
2013-08-06 01:43:00,77.3,74.1,29.73,NE,46,0.4,2.3,90,0.00,CLR,,0.00,0.0,WeatherDisplay:10.37,2013-08-06 06:43:00,
2013-08-06 01:44:00,77.3,74.1,29.73,NE,46,0.4,2.3,90,0.00,CLR,,0.00,0.0,WeatherDisplay:10.37,2013-08-06 06:44:00,
2013-08-06 01:45:00,77.3,74.1,29.74,NE,44,0.2,2.3,90,0.00,CLR,,0.00,0.0,WeatherDisplay:10.37,2013-08-06 06:45:00,
2013-08-06 01:47:00,77.3,74.1,29.73,North,355,0.1,0.0,90,0.00,CLR,,0.00,0.0,WeatherDisplay:10.37,2013-08-06 06:47:00,
2013-08-06 01:48:00,77.3,74.1,29.73,North,355,0.1,1.2,90,0.00,CLR,,0.00,0.0,WeatherDisplay:10.37,2013-08-06 06:48:00,
2013-08-06 01:49:00,77.2,74.0,29.73,North,355,0.0,1.2,90,0.00,CLR,,0.00,0.0,WeatherDisplay:10.37,2013-08-06 06:49:00,
2013-08-06 01:50:00,77.2,74.0,29.73,ENE,61,0.4,2.3,90,0.00,CLR,,0.00,0.0,WeatherDisplay:10.37,2013-08-06 06:50:00,
2013-08-06 01:52:00,77.2,74.0,29.73,SE,125,0.1,1.2,90,0.00,CLR,,0.00,0.0,WeatherDisplay:10.37,2013-08-06 06:52:00,
2013-08-06 01:53:00,77.2,74.0,29.73,South,169,0.1,0.0,90,0.00,CLR,,0.00,0.0,WeatherDisplay:10.37,2013-08-06 06:53:00,
2013-08-06 01:54:00,77.2,74.0,29.73,SSE,167,0.3,1.2,90,0.00,CLR,,0.00,0.0,WeatherDisplay:10.37,2013-08-06 06:54:00,
2013-08-06 01:56:00,77.1,73.9,29.73,South,188,0.9,3.5,90,0.00,CLR,,0.00,0.0,WeatherDisplay:10.37,2013-08-06 06:56:00,
2013-08-06 01:57:00,77.1,73.9,29.73,South,188,0.1,1.2,90,0.00,CLR,,0.00,0.0,WeatherDisplay:10.37,2013-08-06 06:57:00,
2013-08-06 01:58:00,77.1,73.9,29.73,South,183,0.6,2.0,90,0.00,CLR,,0.00,0.0,WeatherDisplay:10.37,2013-08-06 06:58:00,
2013-08-06 01:59:00,77.1,73.9,29.73,South,179,0.9,2.3,90,0.00,CLR,,0.00,0.0,WeatherDisplay:10.37,2013-08-06 06:59:00,
2013-08-06 02:02:00,77.1,73.9,29.73,South,179,0.1,1.2,90,0.00,CLR,,0.00,0.0,WeatherDisplay:10.37,2013-08-06 07:02:00,
2013-08-06 02:03:00,77.1,73.9,29.73,South,179,0.1,1.2,90,0.00,CLR,,0.00,0.0,WeatherDisplay:10.37,2013-08-06 07:03:00,
2013-08-06 02:04:00,77.1,73.9,29.73,South,179,0.6,1.2,90,0.00,CLR,,0.00,0.0,WeatherDisplay:10.37,2013-08-06 07:04:00,
2013-08-06 02:05:00,77.1,73.9,29.73,South,189,0.6,2.3,90,0.00,CLR,,0.00,0.0,WeatherDisplay:10.37,2013-08-06 07:05:00,
2013-08-06 02:07:00,77.2,74.0,29.73,WSW,244,0.4,1.2,90,0.00,CLR,,0.00,0.0,WeatherDisplay:10.37,2013-08-06 07:07:00,
2013-08-06 02:08:00,77.1,73.9,29.73,WSW,244,0.1,1.2,90,0.00,CLR,,0.00,0.0,WeatherDisplay:10.37,2013-08-06 07:08:00,
2013-08-06 02:09:00,77.1,73.9,29.73,WSW,244,0.0,1.2,90,0.00,CLR,,0.00,0.0,WeatherDisplay:10.37,2013-08-06 07:09:00,
2013-08-06 02:10:00,77.1,73.9,29.73,WSW,244,0.1,1.0,90,0.00,CLR,,0.00,0.0,WeatherDisplay:10.37,2013-08-06 07:10:00,
2013-08-06 02:12:00,77.1,74.3,29.72,WSW,240,0.0,0.0,91,0.00,CLR,,0.00,0.0,WeatherDisplay:10.37,2013-08-06 07:12:00,
2013-08-06 02:13:00,77.1,74.3,29.72,WSW,240,0.0,0.0,91,0.00,CLR,,0.00,0.0,WeatherDisplay:10.37,2013-08-06 07:13:00,
2013-08-06 02:14:00,77.1,74.3,29.72,WSW,240,0.0,1.2,91,0.00,CLR,,0.00,0.0,WeatherDisplay:10.37,2013-08-06 07:14:00,
2013-08-06 02:15:00,77.1,74.3,29.72,WSW,240,0.1,0.0,91,0.00,CLR,,0.00,0.0,WeatherDisplay:10.37,2013-08-06 07:15:00,
2013-08-06 02:17:00,77.0,74.2,29.72,ESE,113,1.1,3.5,91,0.00,CLR,,0.00,0.0,WeatherDisplay:10.37,2013-08-06 07:17:00,
2013-08-06 02:18:00,77.0,74.2,29.72,ESE,113,0.2,3.5,91,0.00,CLR,,0.00,0.0,WeatherDisplay:10.37,2013-08-06 07:18:00,
2013-08-06 02:19:00,76.9,74.1,29.72,ESE,113,0.0,0.0,91,0.00,CLR,,0.00,0.0,WeatherDisplay:10.37,2013-08-06 07:19:00,
2013-08-06 02:20:00,76.9,74.1,29.72,SSW,202,0.1,1.0,91,0.00,CLR,,0.00,0.0,WeatherDisplay:10.37,2013-08-06 07:20:00,
2013-08-06 02:22:00,76.8,74.3,29.71,SSW,211,0.1,1.2,92,0.00,CLR,,0.00,0.0,WeatherDisplay:10.37,2013-08-06 07:22:00,
2013-08-06 02:23:00,76.8,74.3,29.71,ENE,67,0.7,3.0,92,0.00,CLR,,0.00,0.0,WeatherDisplay:10.37,2013-08-06 07:23:00,
2013-08-06 02:24:00,76.7,74.2,29.72,SSE,156,0.4,3.5,92,0.00,CLR,,0.00,0.0,WeatherDisplay:10.37,2013-08-06 07:24:00,
2013-08-06 02:25:00,76.7,74.2,29.72,SSE,156,0.0,1.2,92,0.00,CLR,,0.00,0.0,WeatherDisplay:10.37,2013-08-06 07:25:00,
2013-08-06 02:28:00,76.7,74.2,29.72,SSE,156,0.0,0.0,92,0.00,CLR,,0.00,0.0,WeatherDisplay:10.37,2013-08-06 07:28:00,
2013-08-06 02:29:00,76.7,74.2,29.72,SE,134,0.1,1.0,92,0.00,CLR,,0.00,0.0,WeatherDisplay:10.37,2013-08-06 07:29:00,
2013-08-06 02:31:00,76.7,74.2,29.72,SSE,157,0.3,2.0,92,0.00,CLR,,0.00,0.0,WeatherDisplay:10.37,2013-08-06 07:31:00,
2013-08-06 02:33:00,76.8,74.3,29.74,SW,232,5.1,7.0,92,0.00,CLR,,0.00,0.0,WeatherDisplay:10.37,2013-08-06 07:33:00,
2013-08-06 02:34:00,76.8,74.3,29.75,WSW,242,6.6,9.2,92,0.00,CLR,,0.00,0.0,WeatherDisplay:10.37,2013-08-06 07:34:00,
2013-08-06 02:35:00,76.8,74.3,29.75,SW,229,5.8,9.2,92,0.00,CLR,,0.00,0.0,WeatherDisplay:10.37,2013-08-06 07:35:00,
2013-08-06 02:36:00,76.8,74.3,29.75,SSW,211,4.2,8.1,92,0.00,CLR,,0.00,0.0,WeatherDisplay:10.37,2013-08-06 07:36:00,
2013-08-06 02:38:00,76.8,74.3,29.75,SW,215,0.6,4.6,92,0.00,CLR,,0.00,0.0,WeatherDisplay:10.37,2013-08-06 07:38:00,
2013-08-06 02:39:00,76.7,74.2,29.75,NNE,28,0.1,2.3,92,0.00,CLR,,0.00,0.0,WeatherDisplay:10.37,2013-08-06 07:39:00,
2013-08-06 02:40:00,76.7,74.2,29.75,WNW,289,0.2,2.3,92,0.00,CLR,,0.00,0.0,WeatherDisplay:10.37,2013-08-06 07:40:00,
2013-08-06 02:41:00,76.7,74.2,29.75,WNW,291,2.3,4.6,92,0.01,RA,,0.01,0.0,WeatherDisplay:10.37,2013-08-06 07:41:00,
2013-08-06 02:43:00,76.6,74.1,29.75,SW,232,4.3,10.4,92,0.01,RA,,0.01,0.0,WeatherDisplay:10.37,2013-08-06 07:43:00,
2013-08-06 02:45:00,76.4,73.2,29.75,West,278,4.1,9.2,90,0.01,RA,,0.02,0.0,WeatherDisplay:10.37,2013-08-06 07:45:00,
2013-08-06 02:46:00,76.2,72.7,29.75,SW,221,0.8,4.6,89,0.03,RA,,0.04,0.0,WeatherDisplay:10.37,2013-08-06 07:46:00,
2013-08-06 02:48:00,75.9,72.4,29.75,East,101,4.1,10.4,89,0.07,RA,,0.07,0.0,WeatherDisplay:10.37,2013-08-06 07:48:00,
2013-08-06 02:50:00,75.6,72.1,29.75,WNW,285,3.9,9.2,89,0.08,RA,,0.10,0.0,WeatherDisplay:10.37,2013-08-06 07:50:00,
2013-08-06 02:51:00,75.3,71.8,29.75,NNE,15,3.1,6.9,89,0.13,RA,,0.14,0.0,WeatherDisplay:10.37,2013-08-06 07:51:00,
2013-08-06 02:54:00,74.8,71.7,29.75,WNW,284,4.7,6.0,90,0.20,RA,,0.23,0.0,WeatherDisplay:10.37,2013-08-06 07:54:00,
2013-08-06 02:55:00,74.6,71.8,29.76,WNW,300,5.1,9.2,91,0.25,RA,,0.28,0.0,WeatherDisplay:10.37,2013-08-06 07:55:00,
2013-08-06 02:57:00,74.2,71.7,29.76,NNE,15,2.6,8.1,92,0.34,RA,,0.38,0.0,WeatherDisplay:10.37,2013-08-06 07:57:00,
2013-08-06 02:59:00,73.8,71.6,29.77,WNW,293,3.8,6.9,93,0.44,RA,,0.48,0.0,WeatherDisplay:10.37,2013-08-06 07:59:00,
2013-08-06 03:00:00,73.7,71.5,29.77,WNW,287,3.2,5.8,93,0.48,RA,,0.51,0.0,WeatherDisplay:10.37,2013-08-06 08:00:00,
2013-08-06 03:02:00,73.3,71.5,29.77,NW,313,3.5,8.1,94,0.55,RA,,0.55,0.0,WeatherDisplay:10.37,2013-08-06 08:02:00,
2013-08-06 03:04:00,73.2,71.4,29.77,NNE,14,3.9,4.6,94,0.56,RA,,0.57,0.0,WeatherDisplay:10.37,2013-08-06 08:04:00,
2013-08-06 03:05:00,73.1,71.3,29.77,NW,315,4.0,8.1,94,0.57,RA,,0.58,0.0,WeatherDisplay:10.37,2013-08-06 08:05:00,
2013-08-06 03:06:00,72.9,71.1,29.76,NW,313,3.4,6.9,94,0.58,RA,,0.58,0.0,WeatherDisplay:10.37,2013-08-06 08:06:00,
2013-08-06 03:08:00,72.6,70.8,29.76,North,5,1.8,4.6,94,0.59,RA,,0.60,0.0,WeatherDisplay:10.37,2013-08-06 08:08:00,
2013-08-06 03:10:00,72.2,70.4,29.76,NNW,334,2.1,4.0,94,0.61,RA,,0.61,0.0,WeatherDisplay:10.37,2013-08-06 08:10:00,
2013-08-06 03:11:00,72.1,70.3,29.76,NW,304,3.3,8.1,94,0.62,RA,,0.62,0.0,WeatherDisplay:10.37,2013-08-06 08:11:00,
2013-08-06 03:13:00,71.8,70.0,29.76,NE,35,2.7,5.8,94,0.63,RA,,0.64,0.0,WeatherDisplay:10.37,2013-08-06 08:13:00,
2013-08-06 03:15:00,71.5,70.0,29.76,NE,46,1.7,6.9,95,0.65,RA,,0.65,0.0,WeatherDisplay:10.37,2013-08-06 08:15:00,
2013-08-06 03:16:00,71.4,69.9,29.76,NE,46,0.1,2.3,95,0.66,RA,,0.66,0.0,WeatherDisplay:10.37,2013-08-06 08:16:00,
2013-08-06 03:18:00,71.2,69.7,29.77,West,260,0.8,2.3,95,0.68,RA,,0.68,0.0,WeatherDisplay:10.37,2013-08-06 08:18:00,
2013-08-06 03:21:00,71.0,69.5,29.77,West,260,0.0,0.0,95,0.69,RA,,0.69,0.0,WeatherDisplay:10.37,2013-08-06 08:21:00,
2013-08-06 03:24:00,70.9,69.7,29.78,SSE,157,1.3,2.3,96,0.71,RA,,0.72,0.0,WeatherDisplay:10.37,2013-08-06 08:24:00,
2013-08-06 03:26:00,70.8,69.6,29.78,SSE,167,2.1,3.5,96,0.73,RA,,0.73,0.0,WeatherDisplay:10.37,2013-08-06 08:26:00,
2013-08-06 03:29:00,70.8,69.6,29.78,SSE,168,0.4,2.3,96,0.74,RA,,0.74,0.0,WeatherDisplay:10.37,2013-08-06 08:29:00,
2013-08-06 03:31:00,70.7,69.5,29.78,SSE,168,0.2,1.2,96,0.74,RA,,0.74,0.0,WeatherDisplay:10.37,2013-08-06 08:31:00,
2013-08-06 03:34:00,70.7,69.8,29.77,SSE,168,0.0,1.2,97,0.74,RA,,0.74,0.0,WeatherDisplay:10.37,2013-08-06 08:34:00,
2013-08-06 03:36:00,70.7,69.8,29.77,SSE,168,0.4,1.2,97,0.75,RA,,0.75,0.0,WeatherDisplay:10.37,2013-08-06 08:36:00,
2013-08-06 03:37:00,70.7,69.8,29.77,SSE,168,0.5,2.3,97,0.75,RA,,0.75,0.0,WeatherDisplay:10.37,2013-08-06 08:37:00,
2013-08-06 03:39:00,70.7,69.8,29.77,SSE,164,0.0,2.3,97,0.75,RA,,0.75,0.0,WeatherDisplay:10.37,2013-08-06 08:39:00,
2013-08-06 03:41:00,70.7,69.8,29.77,South,182,0.5,2.3,97,0.75,RA,,0.75,0.0,WeatherDisplay:10.37,2013-08-06 08:41:00,
2013-08-06 03:42:00,70.7,69.8,29.77,South,173,0.9,1.2,97,0.74,RA,,0.75,0.0,WeatherDisplay:10.37,2013-08-06 08:42:00,
2013-08-06 03:45:00,70.6,69.7,29.77,SSW,207,0.0,0.0,97,0.74,RA,,0.75,0.0,WeatherDisplay:10.37,2013-08-06 08:45:00,
2013-08-06 03:46:00,70.6,69.7,29.77,SSW,207,0.0,0.0,97,0.73,,,0.75,0.0,WeatherDisplay:10.37,2013-08-06 08:46:00,
2013-08-06 03:47:00,70.6,69.7,29.77,SSW,207,0.0,0.0,97,0.72,,,0.75,0.0,WeatherDisplay:10.37,2013-08-06 08:47:00,
2013-08-06 03:50:00,70.6,69.7,29.76,SSW,207,0.0,0.0,97,0.65,CLR,,0.75,0.0,WeatherDisplay:10.37,2013-08-06 08:50:00,
2013-08-06 03:51:00,70.6,69.7,29.76,SSW,207,0.2,1.2,97,0.62,CLR,,0.75,0.0,WeatherDisplay:10.37,2013-08-06 08:51:00,
2013-08-06 03:52:00,70.6,69.7,29.76,SSW,207,0.2,1.2,97,0.62,CLR,,0.75,0.0,WeatherDisplay:10.37,2013-08-06 08:52:00,
2013-08-06 03:56:00,70.6,69.7,29.76,West,261,0.3,2.0,97,0.47,CLR,,0.75,0.0,WeatherDisplay:10.37,2013-08-06 08:56:00,
2013-08-06 03:57:00,70.6,69.7,29.76,West,261,0.6,2.3,97,0.41,CLR,,0.75,0.0,WeatherDisplay:10.37,2013-08-06 08:57:00,
2013-08-06 04:01:00,70.7,69.8,29.75,West,261,0.1,1.0,97,0.24,CLR,,0.75,0.0,WeatherDisplay:10.37,2013-08-06 09:01:00,
2013-08-06 04:02:00,70.7,69.8,29.75,SSE,168,1.2,2.3,97,0.22,CLR,,0.75,0.0,WeatherDisplay:10.37,2013-08-06 09:02:00,
2013-08-06 04:06:00,70.7,69.8,29.75,SSE,168,0.0,1.2,97,0.18,RA,,0.76,0.0,WeatherDisplay:10.37,2013-08-06 09:06:00,
2013-08-06 04:07:00,70.7,69.8,29.75,SSE,168,0.0,0.0,97,0.17,RA,,0.76,0.0,WeatherDisplay:10.37,2013-08-06 09:07:00,
2013-08-06 04:08:00,70.7,69.8,29.75,SSE,168,0.0,0.0,97,0.17,RA,,0.76,0.0,WeatherDisplay:10.37,2013-08-06 09:08:00,
2013-08-06 04:11:00,70.7,69.8,29.75,SSE,168,0.0,0.0,97,0.14,RA,,0.76,0.0,WeatherDisplay:10.37,2013-08-06 09:11:00,
2013-08-06 04:12:00,70.7,69.8,29.75,SSE,153,0.8,2.3,97,0.13,RA,,0.76,0.0,WeatherDisplay:10.37,2013-08-06 09:12:00,
2013-08-06 04:13:00,70.7,69.8,29.75,SSE,153,0.7,2.3,97,0.13,RA,,0.76,0.0,WeatherDisplay:10.37,2013-08-06 09:13:00,
2013-08-06 04:17:00,70.7,69.8,29.75,SSE,153,0.0,0.0,97,0.10,CLR,,0.76,0.0,WeatherDisplay:10.37,2013-08-06 09:17:00,
2013-08-06 04:18:00,70.7,69.8,29.75,SSE,153,0.0,0.0,97,0.09,CLR,,0.76,0.0,WeatherDisplay:10.37,2013-08-06 09:18:00,
2013-08-06 04:22:00,70.7,69.8,29.75,SSE,153,0.0,0.0,97,0.06,CLR,,0.76,0.0,WeatherDisplay:10.37,2013-08-06 09:22:00,
2013-08-06 04:23:00,70.7,69.8,29.75,SSE,153,0.0,0.0,97,0.05,CLR,,0.76,0.0,WeatherDisplay:10.37,2013-08-06 09:23:00,
2013-08-06 04:27:00,70.8,70.2,29.76,SSE,153,0.0,0.0,98,0.03,CLR,,0.76,0.0,WeatherDisplay:10.37,2013-08-06 09:27:00,
2013-08-06 04:28:00,70.8,70.2,29.76,SSE,153,0.0,0.0,98,0.03,CLR,,0.76,0.0,WeatherDisplay:10.37,2013-08-06 09:28:00,
2013-08-06 04:29:00,70.9,70.3,29.76,SSE,153,0.0,0.0,98,0.02,CLR,,0.76,0.0,WeatherDisplay:10.37,2013-08-06 09:29:00,
2013-08-06 04:32:00,70.9,70.3,29.77,SE,136,0.0,1.2,98,0.02,CLR,,0.76,0.0,WeatherDisplay:10.37,2013-08-06 09:32:00,
2013-08-06 04:33:00,71.0,70.4,29.77,SE,136,0.0,0.0,98,0.02,CLR,,0.76,0.0,WeatherDisplay:10.37,2013-08-06 09:33:00,
2013-08-06 04:34:00,71.0,70.4,29.77,SE,136,0.3,1.2,98,0.02,CLR,,0.76,0.0,WeatherDisplay:10.37,2013-08-06 09:34:00,
2013-08-06 04:38:00,71.0,70.4,29.77,SE,135,0.0,0.0,98,0.01,CLR,,0.76,0.0,WeatherDisplay:10.37,2013-08-06 09:38:00,
2013-08-06 04:39:00,71.1,70.5,29.77,SE,135,0.0,0.0,98,0.01,CLR,,0.76,0.0,WeatherDisplay:10.37,2013-08-06 09:39:00,
2013-08-06 04:43:00,71.1,70.5,29.76,ENE,69,0.0,0.0,98,0.02,RA,,0.77,0.0,WeatherDisplay:10.37,2013-08-06 09:43:00,
2013-08-06 04:44:00,71.1,70.5,29.76,ENE,69,0.0,0.0,98,0.02,RA,,0.77,0.0,WeatherDisplay:10.37,2013-08-06 09:44:00,
2013-08-06 04:48:00,71.1,70.5,29.76,ENE,69,0.1,1.2,98,0.02,RA,,0.77,0.0,WeatherDisplay:10.37,2013-08-06 09:48:00,
2013-08-06 04:49:00,71.1,70.5,29.76,ENE,69,0.0,1.2,98,0.02,RA,,0.77,0.0,WeatherDisplay:10.37,2013-08-06 09:49:00,
2013-08-06 04:53:00,71.2,70.6,29.76,ENE,69,0.0,0.0,98,0.02,CLR,,0.77,0.0,WeatherDisplay:10.37,2013-08-06 09:53:00,
2013-08-06 04:54:00,71.2,70.6,29.76,ENE,69,0.0,0.0,98,0.02,CLR,,0.77,0.0,WeatherDisplay:10.37,2013-08-06 09:54:00,
2013-08-06 04:55:00,71.2,70.6,29.76,ENE,69,0.0,0.0,98,0.02,CLR,,0.77,0.0,WeatherDisplay:10.37,2013-08-06 09:55:00,
2013-08-06 04:59:00,71.2,70.6,29.75,NE,49,0.0,0.0,98,0.02,CLR,,0.77,0.0,WeatherDisplay:10.37,2013-08-06 09:59:00,
2013-08-06 05:00:00,71.3,70.7,29.75,South,184,0.3,1.2,98,0.02,CLR,,0.77,0.0,WeatherDisplay:10.37,2013-08-06 10:00:00,
2013-08-06 05:04:00,71.3,70.7,29.75,South,184,0.7,2.3,98,0.01,CLR,,0.77,0.0,WeatherDisplay:10.37,2013-08-06 10:04:00,
2013-08-06 05:05:00,71.3,70.7,29.75,South,184,0.1,1.2,98,0.01,CLR,,0.77,0.0,WeatherDisplay:10.37,2013-08-06 10:05:00,
2013-08-06 05:09:00,71.4,70.8,29.75,South,188,0.0,0.0,98,0.01,CLR,,0.77,0.0,WeatherDisplay:10.37,2013-08-06 10:09:00,
2013-08-06 05:10:00,71.4,70.8,29.75,South,188,0.1,1.2,98,0.01,CLR,,0.77,0.0,WeatherDisplay:10.37,2013-08-06 10:10:00,
2013-08-06 05:11:00,71.4,70.8,29.74,South,188,0.0,1.2,98,0.01,CLR,,0.77,0.0,WeatherDisplay:10.37,2013-08-06 10:11:00,
2013-08-06 05:14:00,71.4,70.8,29.74,South,188,0.0,0.0,98,0.01,CLR,,0.77,0.0,WeatherDisplay:10.37,2013-08-06 10:14:00,
2013-08-06 05:15:00,71.4,70.8,29.74,South,188,0.0,0.0,98,0.01,CLR,,0.77,0.0,WeatherDisplay:10.37,2013-08-06 10:15:00,
2013-08-06 05:16:00,71.3,70.7,29.74,South,188,0.2,0.0,98,0.01,CLR,,0.77,0.0,WeatherDisplay:10.37,2013-08-06 10:16:00,
2013-08-06 05:19:00,71.3,70.7,29.74,South,184,2.2,3.5,98,0.01,CLR,,0.77,0.0,WeatherDisplay:10.37,2013-08-06 10:19:00,
2013-08-06 05:20:00,71.3,70.7,29.75,SW,224,2.1,3.5,98,0.01,CLR,,0.77,0.0,WeatherDisplay:10.37,2013-08-06 10:20:00,
2013-08-06 05:21:00,71.3,70.7,29.75,SW,221,2.0,3.5,98,0.01,CLR,,0.77,0.0,WeatherDisplay:10.37,2013-08-06 10:21:00,
2013-08-06 05:25:00,71.3,70.7,29.75,South,191,1.2,3.5,98,0.01,CLR,,0.77,0.0,WeatherDisplay:10.37,2013-08-06 10:25:00,
2013-08-06 05:26:00,71.3,70.7,29.75,SSE,165,0.7,2.3,98,0.01,CLR,,0.77,0.0,WeatherDisplay:10.37,2013-08-06 10:26:00,
2013-08-06 05:30:00,71.3,70.7,29.74,South,185,2.4,3.5,98,0.01,CLR,,0.77,0.0,WeatherDisplay:10.37,2013-08-06 10:30:00,
2013-08-06 05:31:00,71.3,70.7,29.74,SE,146,1.5,3.5,98,0.01,CLR,,0.77,0.0,WeatherDisplay:10.37,2013-08-06 10:31:00,
2013-08-06 05:35:00,71.2,70.6,29.74,SE,146,0.1,1.2,98,0.01,CLR,,0.77,0.0,WeatherDisplay:10.37,2013-08-06 10:35:00,
2013-08-06 05:36:00,71.2,70.6,29.74,SE,146,0.0,1.2,98,0.01,CLR,,0.77,0.0,WeatherDisplay:10.37,2013-08-06 10:36:00,
2013-08-06 05:37:00,71.2,70.6,29.74,SE,146,0.0,0.0,98,0.01,CLR,,0.77,0.0,WeatherDisplay:10.37,2013-08-06 10:37:00,
2013-08-06 05:40:00,71.2,70.6,29.74,SE,146,0.0,1.2,98,0.01,CLR,,0.77,0.0,WeatherDisplay:10.37,2013-08-06 10:40:00,
2013-08-06 05:41:00,71.2,70.6,29.74,SE,146,0.1,1.2,98,0.01,CLR,,0.77,0.0,WeatherDisplay:10.37,2013-08-06 10:41:00,
2013-08-06 05:42:00,71.2,70.6,29.74,SSE,159,0.7,2.3,98,0.00,CLR,,0.77,0.0,WeatherDisplay:10.37,2013-08-06 10:42:00,
2013-08-06 05:46:00,71.1,70.5,29.74,SE,144,2.1,4.6,98,0.00,CLR,,0.77,0.0,WeatherDisplay:10.37,2013-08-06 10:46:00,
2013-08-06 05:47:00,71.1,70.5,29.74,South,172,0.6,3.5,98,0.00,CLR,,0.77,0.0,WeatherDisplay:10.37,2013-08-06 10:47:00,
2013-08-06 05:51:00,71.1,70.5,29.74,SSE,166,0.6,4.6,98,0.00,CLR,,0.77,0.0,WeatherDisplay:10.37,2013-08-06 10:51:00,
2013-08-06 05:52:00,71.1,70.5,29.74,SSE,166,0.0,2.3,98,0.00,CLR,,0.77,0.0,WeatherDisplay:10.37,2013-08-06 10:52:00,
2013-08-06 05:56:00,71.0,70.4,29.74,South,182,2.2,3.5,98,0.00,CLR,,0.77,0.0,WeatherDisplay:10.37,2013-08-06 10:56:00,
2013-08-06 05:57:00,71.0,70.4,29.74,South,182,1.6,3.5,98,0.00,CLR,,0.77,0.0,WeatherDisplay:10.37,2013-08-06 10:57:00,
2013-08-06 05:58:00,71.0,70.4,29.74,South,171,1.4,2.3,98,0.00,CLR,,0.77,0.0,WeatherDisplay:10.37,2013-08-06 10:58:00,
2013-08-06 06:01:00,71.0,70.4,29.74,SSW,207,1.2,3.5,98,0.00,CLR,,0.77,0.0,WeatherDisplay:10.37,2013-08-06 11:01:00,
2013-08-06 06:02:00,71.0,70.4,29.74,South,174,1.3,3.5,98,0.00,CLR,,0.77,0.0,WeatherDisplay:10.37,2013-08-06 11:02:00,
2013-08-06 06:03:00,70.9,70.3,29.74,SSW,200,1.6,3.5,98,0.00,CLR,,0.77,0.0,WeatherDisplay:10.37,2013-08-06 11:03:00,
2013-08-06 06:06:00,70.9,70.3,29.74,South,184,1.2,2.3,98,0.00,CLR,,0.77,0.0,WeatherDisplay:10.37,2013-08-06 11:06:00,
2013-08-06 06:07:00,70.9,70.3,29.74,South,184,1.2,2.3,98,0.00,CLR,,0.77,0.0,WeatherDisplay:10.37,2013-08-06 11:07:00,
2013-08-06 06:08:00,70.9,70.3,29.74,SSE,155,1.7,3.0,98,0.00,CLR,,0.77,0.0,WeatherDisplay:10.37,2013-08-06 11:08:00,
2013-08-06 06:11:00,70.8,70.2,29.74,South,170,0.0,1.2,98,0.00,CLR,,0.77,0.0,WeatherDisplay:10.37,2013-08-06 11:11:00,
2013-08-06 06:12:00,70.8,70.2,29.74,South,170,0.4,1.0,98,0.00,CLR,,0.77,0.0,WeatherDisplay:10.37,2013-08-06 11:12:00,
2013-08-06 06:13:00,70.8,70.2,29.74,SSW,202,1.3,3.5,98,0.00,CLR,,0.77,0.0,WeatherDisplay:10.37,2013-08-06 11:13:00,
2013-08-06 06:17:00,70.8,70.2,29.74,SSW,202,0.0,0.0,98,0.00,CLR,,0.77,0.0,WeatherDisplay:10.37,2013-08-06 11:17:00,
2013-08-06 06:18:00,70.8,70.2,29.74,SSW,202,0.0,1.2,98,0.00,CLR,,0.77,0.0,WeatherDisplay:10.37,2013-08-06 11:18:00,
2013-08-06 06:22:00,70.7,70.1,29.74,SSW,202,0.0,0.0,98,0.00,CLR,,0.77,0.0,WeatherDisplay:10.37,2013-08-06 11:22:00,
2013-08-06 06:23:00,70.7,70.1,29.74,SSW,202,0.0,0.0,98,0.00,CLR,,0.77,0.0,WeatherDisplay:10.37,2013-08-06 11:23:00,
2013-08-06 06:24:00,70.7,70.1,29.74,SSW,202,0.0,0.0,98,0.00,CLR,,0.77,0.0,WeatherDisplay:10.37,2013-08-06 11:24:00,
2013-08-06 06:27:00,70.7,70.1,29.73,SSE,165,1.7,3.5,98,0.00,CLR,,0.77,0.0,WeatherDisplay:10.37,2013-08-06 11:27:00,
2013-08-06 06:28:00,70.7,70.1,29.73,SSE,165,1.1,3.5,98,0.00,CLR,,0.77,0.0,WeatherDisplay:10.37,2013-08-06 11:28:00,
2013-08-06 06:29:00,70.6,70.0,29.73,SSE,165,0.2,1.2,98,0.00,CLR,,0.77,0.0,WeatherDisplay:10.37,2013-08-06 11:29:00,
2013-08-06 06:32:00,70.6,70.0,29.74,SSE,165,0.3,1.2,98,0.00,CLR,,0.77,0.0,WeatherDisplay:10.37,2013-08-06 11:32:00,
2013-08-06 06:33:00,70.6,70.0,29.74,SSE,165,0.2,1.2,98,0.00,CLR,,0.77,0.0,WeatherDisplay:10.37,2013-08-06 11:33:00,
2013-08-06 06:35:00,70.5,69.9,29.73,SSE,165,0.3,1.2,98,0.00,CLR,,0.77,0.0,WeatherDisplay:10.37,2013-08-06 11:35:00,
2013-08-06 06:37:00,70.5,69.9,29.73,SSE,165,0.3,1.2,98,0.00,CLR,,0.77,5.0,WeatherDisplay:10.37,2013-08-06 11:37:00,
2013-08-06 06:38:00,70.5,69.9,29.73,SSE,165,0.5,1.2,98,0.00,CLR,,0.77,5.0,WeatherDisplay:10.37,2013-08-06 11:38:00,
2013-08-06 06:40:00,70.6,70.0,29.74,SSW,197,0.1,1.2,98,0.00,CLR,,0.77,5.0,WeatherDisplay:10.37,2013-08-06 11:40:00,
2013-08-06 06:43:00,70.5,69.9,29.73,SSW,197,0.1,1.2,98,0.00,BKN,,0.77,7.0,WeatherDisplay:10.37,2013-08-06 11:43:00,
2013-08-06 06:44:00,70.5,69.9,29.73,SSW,197,0.0,0.0,98,0.00,BKN,,0.77,7.0,WeatherDisplay:10.37,2013-08-06 11:44:00,
2013-08-06 06:45:00,70.5,69.9,29.73,SSW,197,0.0,0.0,98,0.00,BKN,,0.77,9.0,WeatherDisplay:10.37,2013-08-06 11:45:00,
2013-08-06 06:48:00,70.5,69.9,29.73,SSW,197,0.0,0.0,98,0.00,BKN,,0.77,11.0,WeatherDisplay:10.37,2013-08-06 11:48:00,
2013-08-06 06:49:00,70.5,69.9,29.73,SSW,197,0.0,0.0,98,0.00,BKN,,0.77,11.0,WeatherDisplay:10.37,2013-08-06 11:49:00,
2013-08-06 06:50:00,70.5,69.9,29.73,SSW,197,0.1,0.0,98,0.00,BKN,,0.77,12.0,WeatherDisplay:10.37,2013-08-06 11:50:00,
2013-08-06 06:53:00,70.4,69.8,29.73,South,170,0.0,1.2,98,0.00,BKN,,0.77,14.0,WeatherDisplay:10.37,2013-08-06 11:53:00,
2013-08-06 06:54:00,70.4,69.8,29.73,South,170,0.0,0.0,98,0.00,BKN,,0.77,14.0,WeatherDisplay:10.37,2013-08-06 11:54:00,
2013-08-06 06:55:00,70.4,69.8,29.73,South,171,0.5,2.3,98,0.00,BKN,,0.77,16.0,WeatherDisplay:10.37,2013-08-06 11:55:00,
2013-08-06 06:58:00,70.4,69.8,29.73,South,171,0.3,1.2,98,0.00,BKN,,0.77,19.0,WeatherDisplay:10.37,2013-08-06 11:58:00,
2013-08-06 06:59:00,70.4,69.8,29.73,South,171,0.1,1.2,98,0.00,BKN,,0.77,19.0,WeatherDisplay:10.37,2013-08-06 11:59:00,
2013-08-06 07:00:00,70.5,69.9,29.73,South,172,0.9,2.3,98,0.00,BKN,,0.77,21.0,WeatherDisplay:10.37,2013-08-06 12:00:00,
2013-08-06 07:03:00,70.5,69.9,29.73,South,172,0.6,1.2,98,0.00,BKN,,0.77,23.0,WeatherDisplay:10.37,2013-08-06 12:03:00,
2013-08-06 07:04:00,70.5,69.9,29.73,South,172,0.2,2.3,98,0.00,BKN,,0.77,25.0,WeatherDisplay:10.37,2013-08-06 12:04:00,
2013-08-06 07:06:00,70.5,69.9,29.73,South,172,0.0,0.0,98,0.00,BKN,,0.77,25.0,WeatherDisplay:10.37,2013-08-06 12:06:00,
2013-08-06 07:08:00,70.6,70.0,29.73,South,172,0.0,1.2,98,0.00,SCT,,0.77,28.0,WeatherDisplay:10.37,2013-08-06 12:08:00,
2013-08-06 07:09:00,70.6,70.0,29.73,South,172,0.0,1.2,98,0.00,SCT,,0.77,28.0,WeatherDisplay:10.37,2013-08-06 12:09:00,
2013-08-06 07:11:00,70.6,70.0,29.74,South,172,0.0,0.0,98,0.00,SCT,,0.77,30.0,WeatherDisplay:10.37,2013-08-06 12:11:00,
2013-08-06 07:13:00,70.6,70.0,29.74,South,172,0.0,0.0,98,0.00,CLR,,0.77,33.0,WeatherDisplay:10.37,2013-08-06 12:13:00,
2013-08-06 07:14:00,70.6,70.0,29.74,South,172,0.0,1.0,98,0.00,CLR,,0.77,33.0,WeatherDisplay:10.37,2013-08-06 12:14:00,
2013-08-06 07:16:00,70.6,70.0,29.74,South,172,0.0,1.2,98,0.00,CLR,,0.77,35.0,WeatherDisplay:10.37,2013-08-06 12:16:00,
2013-08-06 07:19:00,70.7,70.1,29.74,South,172,0.0,0.0,98,0.00,CLR,,0.77,37.0,WeatherDisplay:10.37,2013-08-06 12:19:00,
2013-08-06 07:20:00,70.7,70.1,29.74,South,172,0.0,0.0,98,0.00,CLR,,0.77,37.0,WeatherDisplay:10.37,2013-08-06 12:20:00,
2013-08-06 07:21:00,70.8,70.2,29.74,South,172,0.0,0.0,98,0.00,CLR,,0.77,39.0,WeatherDisplay:10.37,2013-08-06 12:21:00,
2013-08-06 07:24:00,70.8,70.2,29.74,South,172,0.0,0.0,98,0.00,CLR,,0.77,40.0,WeatherDisplay:10.37,2013-08-06 12:24:00,
2013-08-06 07:25:00,70.9,70.3,29.74,South,172,0.0,0.0,98,0.00,CLR,,0.77,40.0,WeatherDisplay:10.37,2013-08-06 12:25:00,
2013-08-06 07:26:00,70.9,70.3,29.74,South,172,0.0,0.0,98,0.00,CLR,,0.77,40.0,WeatherDisplay:10.37,2013-08-06 12:26:00,
2013-08-06 07:29:00,71.0,70.4,29.74,South,172,0.0,0.0,98,0.00,CLR,,0.77,42.0,WeatherDisplay:10.37,2013-08-06 12:29:00,
2013-08-06 07:30:00,71.0,70.4,29.74,South,172,0.0,0.0,98,0.00,CLR,,0.77,42.0,WeatherDisplay:10.37,2013-08-06 12:30:00,
2013-08-06 07:31:00,71.1,70.5,29.74,South,172,0.0,0.0,98,0.00,CLR,,0.77,44.0,WeatherDisplay:10.37,2013-08-06 12:31:00,
2013-08-06 07:34:00,71.1,70.5,29.75,South,172,0.0,0.0,98,0.00,CLR,,0.77,47.0,WeatherDisplay:10.37,2013-08-06 12:34:00,
2013-08-06 07:35:00,71.1,70.5,29.75,South,172,0.0,0.0,98,0.00,CLR,,0.77,47.0,WeatherDisplay:10.37,2013-08-06 12:35:00,
2013-08-06 07:36:00,71.1,70.5,29.75,South,172,0.0,0.0,98,0.00,CLR,,0.77,49.0,WeatherDisplay:10.37,2013-08-06 12:36:00,
2013-08-06 07:39:00,71.2,70.6,29.75,South,172,0.0,0.0,98,0.00,CLR,,0.77,51.0,WeatherDisplay:10.37,2013-08-06 12:39:00,
2013-08-06 07:40:00,71.2,70.6,29.75,South,172,0.0,0.0,98,0.00,CLR,,0.77,53.0,WeatherDisplay:10.37,2013-08-06 12:40:00,
2013-08-06 07:41:00,71.2,70.6,29.75,South,172,0.0,1.0,98,0.00,CLR,,0.77,54.0,WeatherDisplay:10.37,2013-08-06 12:41:00,
2013-08-06 07:45:00,71.3,70.7,29.75,South,172,0.0,0.0,98,0.00,CLR,,0.77,56.0,WeatherDisplay:10.37,2013-08-06 12:45:00,
2013-08-06 07:47:00,71.4,70.8,29.76,South,172,0.0,0.0,98,0.00,CLR,,0.77,56.0,WeatherDisplay:10.37,2013-08-06 12:47:00,
2013-08-06 07:50:00,71.6,71.0,29.76,South,172,0.0,0.0,98,0.00,CLR,,0.77,53.0,WeatherDisplay:10.37,2013-08-06 12:50:00,
2013-08-06 07:52:00,71.6,71.0,29.76,South,172,0.1,0.0,98,0.00,CLR,,0.77,51.0,WeatherDisplay:10.37,2013-08-06 12:52:00,
2013-08-06 07:55:00,71.7,71.1,29.76,South,172,0.1,2.3,98,0.00,CLR,,0.77,49.0,WeatherDisplay:10.37,2013-08-06 12:55:00,
2013-08-06 07:56:00,71.7,71.1,29.76,South,172,0.0,1.2,98,0.00,CLR,,0.77,49.0,WeatherDisplay:10.37,2013-08-06 12:56:00,
2013-08-06 07:57:00,71.7,71.1,29.76,South,172,0.0,0.0,98,0.00,CLR,,0.77,49.0,WeatherDisplay:10.37,2013-08-06 12:57:00,
2013-08-06 08:00:00,71.9,71.3,29.77,South,172,0.0,0.0,98,0.00,OVC,,0.77,47.0,WeatherDisplay:10.37,2013-08-06 13:00:00,
2013-08-06 08:01:00,71.9,71.3,29.77,South,172,0.0,0.0,98,0.00,OVC,,0.77,46.0,WeatherDisplay:10.37,2013-08-06 13:01:00,
2013-08-06 08:02:00,71.9,71.3,29.77,South,172,0.0,0.0,98,0.00,OVC,,0.77,46.0,WeatherDisplay:10.37,2013-08-06 13:02:00,
2013-08-06 08:03:00,71.9,71.3,29.77,South,172,0.0,0.0,98,0.00,OVC,,0.77,46.0,WeatherDisplay:10.37,2013-08-06 13:03:00,
2013-08-06 08:05:00,72.1,71.5,29.77,South,172,0.0,0.0,98,0.00,OVC,,0.77,46.0,WeatherDisplay:10.37,2013-08-06 13:05:00,
2013-08-06 08:06:00,72.1,71.5,29.77,South,172,0.0,0.0,98,0.00,OVC,,0.77,46.0,WeatherDisplay:10.37,2013-08-06 13:06:00,
2013-08-06 08:07:00,72.1,71.5,29.77,South,172,0.0,0.0,98,0.00,OVC,,0.77,47.0,WeatherDisplay:10.37,2013-08-06 13:07:00,
2013-08-06 08:08:00,72.2,71.6,29.77,South,172,0.0,0.0,98,0.00,OVC,,0.77,49.0,WeatherDisplay:10.37,2013-08-06 13:08:00,
2013-08-06 08:10:00,72.2,71.6,29.77,South,172,0.0,0.0,98,0.00,OVC,,0.77,54.0,WeatherDisplay:10.37,2013-08-06 13:10:00,
2013-08-06 08:11:00,72.2,71.6,29.77,South,172,0.0,0.0,98,0.00,OVC,,0.77,56.0,WeatherDisplay:10.37,2013-08-06 13:11:00,
2013-08-06 08:12:00,72.2,71.6,29.77,South,172,0.0,0.0,98,0.00,OVC,,0.77,60.0,WeatherDisplay:10.37,2013-08-06 13:12:00,
2013-08-06 08:13:00,72.2,71.6,29.77,South,172,0.0,0.0,98,0.00,OVC,,0.77,62.0,WeatherDisplay:10.37,2013-08-06 13:13:00,
2013-08-06 08:16:00,72.2,71.6,29.78,South,172,0.0,0.0,98,0.00,OVC,,0.77,72.0,WeatherDisplay:10.37,2013-08-06 13:16:00,
2013-08-06 08:17:00,72.2,71.6,29.78,South,172,0.0,0.0,98,0.00,OVC,,0.77,76.0,WeatherDisplay:10.37,2013-08-06 13:17:00,
2013-08-06 08:18:00,72.3,71.7,29.78,South,172,0.0,0.0,98,0.00,OVC,,0.77,77.0,WeatherDisplay:10.37,2013-08-06 13:18:00,
2013-08-06 08:21:00,72.3,71.7,29.77,South,172,0.0,0.0,98,0.00,OVC,,0.77,84.0,WeatherDisplay:10.37,2013-08-06 13:21:00,
2013-08-06 08:22:00,72.3,71.7,29.77,South,172,0.0,0.0,98,0.00,OVC,,0.77,84.0,WeatherDisplay:10.37,2013-08-06 13:22:00,
2013-08-06 08:23:00,72.3,71.7,29.77,South,172,0.0,1.0,98,0.00,OVC,,0.77,84.0,WeatherDisplay:10.37,2013-08-06 13:23:00,
2013-08-06 08:27:00,72.4,71.8,29.77,South,172,0.0,0.0,98,0.00,OVC,,0.77,93.0,WeatherDisplay:10.37,2013-08-06 13:27:00,
2013-08-06 08:28:00,72.5,71.9,29.77,South,172,0.0,0.0,98,0.00,OVC,,0.77,93.0,WeatherDisplay:10.37,2013-08-06 13:28:00,
2013-08-06 08:32:00,72.5,71.9,29.77,East,101,0.1,2.3,98,0.00,OVC,,0.77,102.0,WeatherDisplay:10.37,2013-08-06 13:32:00,
2013-08-06 08:33:00,72.5,71.9,29.77,East,101,0.0,0.0,98,0.00,OVC,,0.77,104.0,WeatherDisplay:10.37,2013-08-06 13:33:00,
2013-08-06 08:37:00,72.6,72.0,29.77,SE,128,0.1,1.2,98,0.00,OVC,,0.77,111.0,WeatherDisplay:10.37,2013-08-06 13:37:00,
2013-08-06 08:38:00,72.6,72.0,29.77,SE,130,0.2,0.0,98,0.00,OVC,,0.77,113.0,WeatherDisplay:10.37,2013-08-06 13:38:00,
2013-08-06 08:39:00,72.5,71.6,29.77,SE,130,0.1,1.2,97,0.00,OVC,,0.77,127.0,WeatherDisplay:10.37,2013-08-06 13:39:00,
2013-08-06 08:42:00,72.8,71.9,29.77,SE,130,0.0,0.0,97,0.00,OVC,,0.77,113.0,WeatherDisplay:10.37,2013-08-06 13:42:00,
2013-08-06 08:43:00,72.8,71.9,29.77,SE,130,0.0,0.0,97,0.00,OVC,,0.77,118.0,WeatherDisplay:10.37,2013-08-06 13:43:00,
2013-08-06 08:44:00,72.9,72.0,29.77,SE,130,0.0,0.0,97,0.00,OVC,,0.77,167.0,WeatherDisplay:10.37,2013-08-06 13:44:00,
2013-08-06 08:47:00,73.0,72.1,29.78,SE,132,0.0,0.0,97,0.00,OVC,,0.77,127.0,WeatherDisplay:10.37,2013-08-06 13:47:00,
2013-08-06 08:48:00,73.1,72.2,29.78,SE,132,0.0,0.0,97,0.00,OVC,,0.77,176.0,WeatherDisplay:10.37,2013-08-06 13:48:00,
2013-08-06 08:49:00,73.1,72.2,29.78,SE,132,0.0,0.0,97,0.00,OVC,,0.77,179.0,WeatherDisplay:10.37,2013-08-06 13:49:00,
2013-08-06 08:51:00,73.2,72.3,29.78,NE,38,0.4,2.3,97,0.00,OVC,,0.77,243.0,WeatherDisplay:10.37,2013-08-06 13:51:00,
2013-08-06 08:52:00,73.2,72.3,29.78,NE,52,0.7,2.3,97,0.00,OVC,,0.77,253.0,WeatherDisplay:10.37,2013-08-06 13:52:00,
2013-08-06 08:53:00,73.2,72.3,29.78,NE,52,0.7,2.3,97,0.00,OVC,,0.77,285.0,WeatherDisplay:10.37,2013-08-06 13:53:00,
2013-08-06 08:54:00,73.2,72.0,29.78,NE,52,0.2,2.3,96,0.00,OVC,,0.77,292.0,WeatherDisplay:10.37,2013-08-06 13:54:00,
2013-08-06 08:56:00,73.6,72.4,29.78,West,275,0.1,1.2,96,0.00,OVC,,0.77,360.0,WeatherDisplay:10.37,2013-08-06 13:56:00,
2013-08-06 08:58:00,73.8,72.9,29.78,ESE,122,0.6,1.2,97,0.00,OVC,,0.77,227.0,WeatherDisplay:10.37,2013-08-06 13:58:00,
2013-08-06 08:59:00,73.9,72.4,29.78,ESE,122,0.2,2.3,95,0.00,OVC,,0.77,181.0,WeatherDisplay:10.37,2013-08-06 13:59:00,
2013-08-06 09:01:00,74.1,72.3,29.78,ESE,122,0.4,1.2,94,0.00,OVC,,0.77,218.0,WeatherDisplay:10.37,2013-08-06 14:01:00,
2013-08-06 09:03:00,74.2,72.7,29.78,ESE,122,0.0,1.2,95,0.00,OVC,,0.77,199.0,WeatherDisplay:10.37,2013-08-06 14:03:00,
2013-08-06 09:04:00,74.3,72.8,29.78,ESE,122,0.0,1.2,95,0.00,OVC,,0.77,244.0,WeatherDisplay:10.37,2013-08-06 14:04:00,
2013-08-06 09:07:00,74.4,72.6,29.78,South,179,0.4,3.5,94,0.00,OVC,,0.77,176.0,WeatherDisplay:10.37,2013-08-06 14:07:00,
2013-08-06 09:09:00,74.4,72.6,29.79,WSW,242,0.1,2.3,94,0.00,OVC,,0.77,211.0,WeatherDisplay:10.37,2013-08-06 14:09:00,
2013-08-06 09:10:00,74.4,72.6,29.79,SSW,200,1.0,2.0,94,0.00,OVC,,0.77,237.0,WeatherDisplay:10.37,2013-08-06 14:10:00,
2013-08-06 09:12:00,74.5,72.3,29.79,South,175,1.2,2.3,93,0.00,OVC,,0.77,288.0,WeatherDisplay:10.37,2013-08-06 14:12:00,
2013-08-06 09:14:00,74.7,72.5,29.79,SW,225,0.0,0.0,93,0.00,OVC,,0.77,209.0,WeatherDisplay:10.37,2013-08-06 14:14:00,
2013-08-06 09:15:00,74.8,72.6,29.79,SW,225,0.1,1.2,93,0.00,OVC,,0.77,199.0,WeatherDisplay:10.37,2013-08-06 14:15:00,
2013-08-06 09:17:00,74.8,72.3,29.78,South,187,1.2,2.3,92,0.00,OVC,,0.77,192.0,WeatherDisplay:10.37,2013-08-06 14:17:00,
2013-08-06 09:19:00,74.9,72.7,29.78,South,173,0.0,3.5,93,0.00,OVC,,0.77,197.0,WeatherDisplay:10.37,2013-08-06 14:19:00,
2013-08-06 09:20:00,74.9,72.1,29.78,SW,224,0.2,1.2,91,0.00,OVC,,0.77,213.0,WeatherDisplay:10.37,2013-08-06 14:20:00,
2013-08-06 09:22:00,74.9,71.8,29.78,South,187,2.0,3.5,90,0.00,OVC,,0.77,204.0,WeatherDisplay:10.37,2013-08-06 14:22:00,
2013-08-06 09:24:00,75.1,72.9,29.79,South,187,0.0,1.2,93,0.00,OVC,,0.77,299.0,WeatherDisplay:10.37,2013-08-06 14:24:00,
2013-08-06 09:25:00,75.2,73.0,29.79,South,187,0.0,0.0,93,0.00,OVC,,0.77,299.0,WeatherDisplay:10.37,2013-08-06 14:25:00,
2013-08-06 09:27:00,75.7,73.8,29.78,South,187,0.0,0.0,94,0.00,OVC,,0.77,299.0,WeatherDisplay:10.37,2013-08-06 14:27:00,
2013-08-06 09:29:00,76.4,73.9,29.79,South,187,0.1,3.5,92,0.00,OVC,,0.77,617.0,WeatherDisplay:10.37,2013-08-06 14:29:00,
2013-08-06 09:30:00,76.6,74.1,29.79,SE,132,0.2,1.2,92,0.00,OVC,,0.77,225.0,WeatherDisplay:10.37,2013-08-06 14:30:00,
2013-08-06 09:32:00,76.8,73.0,29.79,South,176,1.4,4.0,88,0.00,OVC,,0.77,260.0,WeatherDisplay:10.37,2013-08-06 14:32:00,
2013-08-06 09:34:00,76.8,72.6,29.79,South,187,2.7,3.5,87,0.00,OVC,,0.77,236.0,WeatherDisplay:10.37,2013-08-06 14:34:00,
2013-08-06 09:35:00,76.8,72.6,29.79,SE,138,1.7,3.5,87,0.00,OVC,,0.77,229.0,WeatherDisplay:10.37,2013-08-06 14:35:00,
2013-08-06 09:37:00,76.7,72.5,29.79,South,169,1.4,2.3,87,0.00,OVC,,0.77,197.0,WeatherDisplay:10.37,2013-08-06 14:37:00,
2013-08-06 09:39:00,76.7,72.2,29.79,South,175,1.0,3.5,86,0.00,OVC,,0.77,188.0,WeatherDisplay:10.37,2013-08-06 14:39:00,
2013-08-06 09:40:00,76.7,72.9,29.79,South,175,0.0,0.0,88,0.00,OVC,,0.77,183.0,WeatherDisplay:10.37,2013-08-06 14:40:00,
2013-08-06 09:43:00,76.7,73.2,29.79,South,175,0.2,3.5,89,0.00,OVC,,0.77,179.0,WeatherDisplay:10.37,2013-08-06 14:43:00,
2013-08-06 09:44:00,76.8,72.6,29.79,SSE,151,2.6,2.6,87,0.00,OVC,,0.77,178.0,WeatherDisplay:10.37,2013-08-06 14:44:00,
2013-08-06 09:45:00,76.7,72.5,29.79,South,173,0.8,2.3,87,0.00,OVC,,0.77,174.0,WeatherDisplay:10.37,2013-08-06 14:45:00,
2013-08-06 09:48:00,76.6,72.1,29.79,South,173,1.7,3.5,86,0.00,OVC,,0.77,181.0,WeatherDisplay:10.37,2013-08-06 14:48:00,
2013-08-06 09:50:00,76.5,72.3,29.79,South,182,1.8,6.9,87,0.00,OVC,,0.77,202.0,WeatherDisplay:10.37,2013-08-06 14:50:00,
2013-08-06 09:51:00,76.6,72.8,29.79,South,182,0.1,6.9,88,0.00,OVC,,0.77,221.0,WeatherDisplay:10.37,2013-08-06 14:51:00,
2013-08-06 09:53:00,76.7,72.9,29.79,South,182,0.0,0.0,88,0.00,OVC,,0.77,220.0,WeatherDisplay:10.37,2013-08-06 14:53:00,
2013-08-06 09:55:00,76.9,73.4,29.79,South,182,0.0,1.2,89,0.00,OVC,,0.77,264.0,WeatherDisplay:10.37,2013-08-06 14:55:00,
2013-08-06 09:56:00,76.9,73.4,29.79,South,182,0.0,0.0,89,0.00,OVC,,0.77,288.0,WeatherDisplay:10.37,2013-08-06 14:56:00,
2013-08-06 09:58:00,77.0,73.5,29.79,South,182,0.0,0.0,89,0.00,OVC,,0.77,376.0,WeatherDisplay:10.37,2013-08-06 14:58:00,
2013-08-06 10:00:00,77.3,72.8,29.79,SSW,200,1.5,3.5,86,0.00,OVC,,0.77,373.0,WeatherDisplay:10.37,2013-08-06 15:00:00,
2013-08-06 10:01:00,77.4,72.5,29.79,SSW,193,1.8,3.5,85,0.00,OVC,,0.77,313.0,WeatherDisplay:10.37,2013-08-06 15:01:00,
2013-08-06 10:04:00,77.8,72.6,29.78,SSE,165,3.2,4.6,84,0.00,OVC,,0.77,267.0,WeatherDisplay:10.37,2013-08-06 15:04:00,
2013-08-06 10:05:00,77.8,73.3,29.78,SSW,198,0.4,2.3,86,0.00,OVC,,0.77,276.0,WeatherDisplay:10.37,2013-08-06 15:05:00,
2013-08-06 10:06:00,77.9,73.4,29.78,SSW,197,0.1,2.3,86,0.00,OVC,,0.77,309.0,WeatherDisplay:10.37,2013-08-06 15:06:00,
2013-08-06 10:07:00,77.9,73.0,29.78,SSW,196,0.7,3.5,85,0.00,OVC,,0.77,387.0,WeatherDisplay:10.37,2013-08-06 15:07:00,
2013-08-06 10:09:00,78.2,73.0,29.78,SE,136,1.4,3.5,84,0.00,OVC,,0.77,485.0,WeatherDisplay:10.37,2013-08-06 15:09:00,
2013-08-06 10:10:00,78.5,73.3,29.78,South,185,1.6,3.5,84,0.00,OVC,,0.77,352.0,WeatherDisplay:10.37,2013-08-06 15:10:00,
2013-08-06 10:11:00,78.6,73.7,29.78,South,185,0.8,3.5,85,0.00,OVC,,0.77,311.0,WeatherDisplay:10.37,2013-08-06 15:11:00,
2013-08-06 10:12:00,78.7,73.8,29.78,South,185,0.0,3.5,85,0.00,OVC,,0.77,387.0,WeatherDisplay:10.37,2013-08-06 15:12:00,
2013-08-06 10:14:00,78.8,73.9,29.78,South,172,1.0,3.5,85,0.00,OVC,,0.77,429.0,WeatherDisplay:10.37,2013-08-06 15:14:00,
2013-08-06 10:16:00,78.9,73.7,29.78,East,99,1.0,3.5,84,0.00,OVC,,0.77,225.0,WeatherDisplay:10.37,2013-08-06 15:16:00,
2013-08-06 10:17:00,78.9,72.9,29.79,South,173,2.0,3.5,82,0.00,OVC,,0.77,213.0,WeatherDisplay:10.37,2013-08-06 15:17:00,
2013-08-06 10:19:00,78.8,72.8,29.78,South,183,0.6,3.5,82,0.00,OVC,,0.77,207.0,WeatherDisplay:10.37,2013-08-06 15:19:00,
2013-08-06 10:21:00,78.6,73.0,29.79,South,183,0.0,1.2,83,0.00,OVC,,0.77,237.0,WeatherDisplay:10.37,2013-08-06 15:21:00,
2013-08-06 10:22:00,78.6,73.4,29.79,South,183,0.0,0.0,84,0.00,OVC,,0.77,243.0,WeatherDisplay:10.37,2013-08-06 15:22:00,
2013-08-06 10:24:00,78.5,72.9,29.79,South,175,2.6,6.9,83,0.00,OVC,,0.77,248.0,WeatherDisplay:10.37,2013-08-06 15:24:00,
2013-08-06 10:26:00,78.8,73.2,29.79,South,179,1.1,2.3,83,0.00,OVC,,0.77,295.0,WeatherDisplay:10.37,2013-08-06 15:26:00,
2013-08-06 10:27:00,78.7,72.7,29.79,ESE,123,0.8,2.3,82,0.00,OVC,,0.77,295.0,WeatherDisplay:10.37,2013-08-06 15:27:00,
2013-08-06 10:29:00,78.8,73.6,29.79,WSW,251,0.2,2.3,84,0.00,OVC,,0.77,271.0,WeatherDisplay:10.37,2013-08-06 15:29:00,
2013-08-06 10:31:00,79.0,73.0,29.79,South,184,2.5,2.5,82,0.00,OVC,,0.77,302.0,WeatherDisplay:10.37,2013-08-06 15:31:00,
2013-08-06 10:32:00,79.1,73.5,29.79,South,191,1.9,4.6,83,0.00,OVC,,0.77,302.0,WeatherDisplay:10.37,2013-08-06 15:32:00,
2013-08-06 10:33:00,79.3,73.7,29.79,SW,226,0.9,3.5,83,0.00,OVC,,0.77,302.0,WeatherDisplay:10.37,2013-08-06 15:33:00,
2013-08-06 10:34:00,79.5,73.9,29.79,SSE,160,0.4,2.3,83,0.00,OVC,,0.77,452.0,WeatherDisplay:10.37,2013-08-06 15:34:00,
2013-08-06 10:36:00,79.7,73.7,29.79,WSW,247,1.2,2.3,82,0.00,OVC,,0.77,446.0,WeatherDisplay:10.37,2013-08-06 15:36:00,
2013-08-06 10:37:00,79.8,73.4,29.79,SE,142,2.3,4.0,81,0.00,OVC,,0.77,446.0,WeatherDisplay:10.37,2013-08-06 15:37:00,
2013-08-06 10:38:00,79.9,73.2,29.79,SSW,207,1.8,4.6,80,0.00,OVC,,0.77,515.0,WeatherDisplay:10.37,2013-08-06 15:38:00,
2013-08-06 10:39:00,80.1,73.7,29.78,SE,142,0.9,3.5,81,0.00,OVC,,0.77,515.0,WeatherDisplay:10.37,2013-08-06 15:39:00,
2013-08-06 10:41:00,80.3,73.2,29.78,SE,127,2.5,5.8,79,0.00,OVC,,0.77,469.0,WeatherDisplay:10.37,2013-08-06 15:41:00,
2013-08-06 10:42:00,80.4,73.7,29.78,South,170,1.2,2.3,80,0.00,OVC,,0.77,513.0,WeatherDisplay:10.37,2013-08-06 15:42:00,
2013-08-06 10:43:00,80.6,74.2,29.78,ESE,110,1.3,2.3,81,0.00,OVC,,0.77,513.0,WeatherDisplay:10.37,2013-08-06 15:43:00,
2013-08-06 10:45:00,80.9,73.0,29.78,SE,141,2.9,8.1,77,0.00,OVC,,0.77,322.0,WeatherDisplay:10.37,2013-08-06 15:45:00,
2013-08-06 10:46:00,80.7,74.0,29.79,NE,35,0.3,2.3,80,0.00,OVC,,0.77,287.0,WeatherDisplay:10.37,2013-08-06 15:46:00,
2013-08-06 10:48:00,80.7,73.6,29.79,NE,52,2.4,5.0,79,0.00,OVC,,0.77,294.0,WeatherDisplay:10.37,2013-08-06 15:48:00,
2013-08-06 10:51:00,80.3,73.6,29.79,East,98,1.3,3.5,80,0.00,OVC,,0.77,318.0,WeatherDisplay:10.37,2013-08-06 15:51:00,
2013-08-06 10:53:00,80.3,73.6,29.79,SSE,161,1.6,3.5,80,0.00,OVC,,0.77,353.0,WeatherDisplay:10.37,2013-08-06 15:53:00,
2013-08-06 10:54:00,80.3,73.6,29.79,SSE,161,1.9,3.5,80,0.00,OVC,,0.77,353.0,WeatherDisplay:10.37,2013-08-06 15:54:00,
2013-08-06 10:56:00,80.2,73.1,29.79,SSW,211,2.7,4.0,79,0.00,OVC,,0.77,408.0,WeatherDisplay:10.37,2013-08-06 15:56:00,
2013-08-06 10:57:00,80.3,72.4,29.79,South,173,4.3,6.9,77,0.00,OVC,,0.77,823.0,WeatherDisplay:10.37,2013-08-06 15:57:00,
2013-08-06 10:59:00,80.9,73.0,29.78,South,177,3.3,8.1,77,0.00,OVC,,0.77,823.0,WeatherDisplay:10.37,2013-08-06 15:59:00,
2013-08-06 11:01:00,81.2,72.9,29.78,NNE,30,2.6,6.9,76,0.00,OVC,,0.77,823.0,WeatherDisplay:10.37,2013-08-06 16:01:00,
2013-08-06 11:02:00,81.2,73.3,29.78,SSE,163,2.8,3.5,77,0.00,OVC,,0.77,823.0,WeatherDisplay:10.37,2013-08-06 16:02:00,
2013-08-06 11:04:00,81.6,73.3,29.78,SSE,161,4.3,10.4,76,0.00,OVC,,0.77,823.0,WeatherDisplay:10.37,2013-08-06 16:04:00,
2013-08-06 11:06:00,81.8,74.6,29.78,South,181,0.8,3.5,79,0.00,OVC,,0.77,724.0,WeatherDisplay:10.37,2013-08-06 16:06:00,
2013-08-06 11:07:00,82.0,74.5,29.78,South,170,2.2,3.0,78,0.00,OVC,,0.77,710.0,WeatherDisplay:10.37,2013-08-06 16:07:00,
2013-08-06 11:09:00,82.1,73.8,29.78,SSE,155,1.2,4.6,76,0.00,OVC,,0.77,710.0,WeatherDisplay:10.37,2013-08-06 16:09:00,
2013-08-06 11:11:00,82.3,74.0,29.78,SSE,160,2.4,3.5,76,0.00,OVC,,0.77,737.0,WeatherDisplay:10.37,2013-08-06 16:11:00,
2013-08-06 11:12:00,82.5,73.8,29.78,SSE,147,3.2,4.6,75,0.00,OVC,,0.77,719.0,WeatherDisplay:10.37,2013-08-06 16:12:00,
2013-08-06 11:14:00,82.8,74.1,29.78,South,191,3.4,3.5,75,0.00,OVC,,0.77,717.0,WeatherDisplay:10.37,2013-08-06 16:14:00,
2013-08-06 11:16:00,82.9,73.8,29.79,SE,133,3.2,10.4,74,0.00,OVC,,0.77,719.0,WeatherDisplay:10.37,2013-08-06 16:16:00,
2013-08-06 11:17:00,82.7,73.6,29.79,SSW,209,4.0,9.2,74,0.00,OVC,,0.77,724.0,WeatherDisplay:10.37,2013-08-06 16:17:00,
2013-08-06 11:19:00,82.7,74.0,29.79,SSW,202,0.3,9.2,75,0.00,OVC,,0.77,735.0,WeatherDisplay:10.37,2013-08-06 16:19:00,
2013-08-06 11:20:00,82.8,73.7,29.78,SSE,160,2.1,6.0,74,0.00,OVC,,0.77,735.0,WeatherDisplay:10.37,2013-08-06 16:20:00,
2013-08-06 11:21:00,82.9,73.8,29.78,SSE,164,3.1,5.8,74,0.00,OVC,,0.77,735.0,WeatherDisplay:10.37,2013-08-06 16:21:00,
2013-08-06 11:22:00,83.0,73.4,29.78,South,177,3.9,6.9,73,0.00,OVC,,0.77,738.0,WeatherDisplay:10.37,2013-08-06 16:22:00,
2013-08-06 11:24:00,83.4,73.4,29.78,South,189,4.2,6.9,72,0.00,OVC,,0.77,744.0,WeatherDisplay:10.37,2013-08-06 16:24:00,
2013-08-06 11:25:00,83.4,73.4,29.78,SW,215,4.7,8.1,72,0.00,OVC,,0.77,744.0,WeatherDisplay:10.37,2013-08-06 16:25:00,
2013-08-06 11:26:00,83.4,73.4,29.78,SSW,211,4.4,10.4,72,0.00,OVC,,0.77,749.0,WeatherDisplay:10.37,2013-08-06 16:26:00,
2013-08-06 11:27:00,83.4,73.4,29.78,South,184,3.4,8.1,72,0.00,OVC,,0.77,754.0,WeatherDisplay:10.37,2013-08-06 16:27:00,
2013-08-06 11:29:00,83.6,73.6,29.78,SW,217,2.9,9.0,72,0.00,OVC,,0.77,756.0,WeatherDisplay:10.37,2013-08-06 16:29:00,
2013-08-06 11:30:00,83.7,73.7,29.78,SSE,154,5.0,5.8,72,0.00,OVC,,0.77,758.0,WeatherDisplay:10.37,2013-08-06 16:30:00,
2013-08-06 11:31:00,83.5,73.1,29.79,SE,146,4.8,9.2,71,0.00,OVC,,0.77,756.0,WeatherDisplay:10.37,2013-08-06 16:31:00,
2013-08-06 11:32:00,83.4,73.8,29.79,SW,223,3.5,6.9,73,0.00,OVC,,0.77,758.0,WeatherDisplay:10.37,2013-08-06 16:32:00,
2013-08-06 11:35:00,83.5,73.1,29.79,SE,143,0.8,2.3,71,0.00,OVC,,0.77,763.0,WeatherDisplay:10.37,2013-08-06 16:35:00,
2013-08-06 11:36:00,83.5,72.7,29.79,ESE,102,3.0,6.9,70,0.00,OVC,,0.77,763.0,WeatherDisplay:10.37,2013-08-06 16:36:00,
2013-08-06 11:38:00,83.7,73.7,29.79,South,175,2.1,4.6,72,0.00,OVC,,0.77,770.0,WeatherDisplay:10.37,2013-08-06 16:38:00,
2013-08-06 11:41:00,84.0,73.6,29.79,East,101,1.6,5.8,71,0.00,OVC,,0.77,773.0,WeatherDisplay:10.37,2013-08-06 16:41:00,
2013-08-06 11:43:00,84.1,72.8,29.79,SSE,167,3.5,8.1,69,0.00,OVC,,0.77,772.0,WeatherDisplay:10.37,2013-08-06 16:43:00,
2013-08-06 11:46:00,84.2,73.8,29.79,SSE,164,1.5,9.2,71,0.00,OVC,,0.77,777.0,WeatherDisplay:10.37,2013-08-06 16:46:00,
2013-08-06 11:47:00,84.3,73.9,29.79,SSE,167,4.0,5.0,71,0.00,OVC,,0.77,782.0,WeatherDisplay:10.37,2013-08-06 16:47:00,
2013-08-06 11:48:00,84.3,73.4,29.79,ESE,113,1.7,5.8,70,0.00,OVC,,0.77,784.0,WeatherDisplay:10.37,2013-08-06 16:48:00,
2013-08-06 11:51:00,84.6,74.2,29.79,East,82,0.4,2.3,71,0.00,OVC,,0.77,802.0,WeatherDisplay:10.37,2013-08-06 16:51:00,
2013-08-06 11:52:00,84.7,74.3,29.79,South,180,2.3,6.0,71,0.00,OVC,,0.77,796.0,WeatherDisplay:10.37,2013-08-06 16:52:00,
2013-08-06 11:53:00,84.9,73.2,29.79,SSE,155,4.8,6.9,68,0.00,OVC,,0.77,795.0,WeatherDisplay:10.37,2013-08-06 16:53:00,
2013-08-06 11:56:00,85.3,74.0,29.79,South,187,5.0,8.0,69,0.00,OVC,,0.77,810.0,WeatherDisplay:10.37,2013-08-06 16:56:00,
2013-08-06 11:57:00,85.3,73.5,29.79,SSW,213,4.7,9.2,68,0.00,OVC,,0.77,837.0,WeatherDisplay:10.37,2013-08-06 16:57:00,
2013-08-06 11:58:00,85.0,72.8,29.79,SSW,204,5.4,8.1,67,0.00,OVC,,0.77,874.0,WeatherDisplay:10.37,2013-08-06 16:58:00,
2013-08-06 12:01:00,84.8,73.1,29.78,ESE,113,3.9,6.9,68,0.00,OVC,,0.77,914.0,WeatherDisplay:10.37,2013-08-06 17:01:00,
2013-08-06 12:02:00,84.7,73.0,29.78,SE,138,2.6,6.9,68,0.00,OVC,,0.77,914.0,WeatherDisplay:10.37,2013-08-06 17:02:00,
2013-08-06 12:04:00,84.7,74.3,29.78,SSW,201,1.4,3.5,71,0.00,OVC,,0.77,345.0,WeatherDisplay:10.37,2013-08-06 17:04:00,
2013-08-06 12:06:00,84.7,73.4,29.78,South,174,2.0,4.6,69,0.00,OVC,,0.77,290.0,WeatherDisplay:10.37,2013-08-06 17:06:00,
2013-08-06 12:07:00,84.6,73.3,29.78,South,188,4.0,5.0,69,0.00,OVC,,0.77,267.0,WeatherDisplay:10.37,2013-08-06 17:07:00,
2013-08-06 12:08:00,84.4,73.1,29.78,South,188,3.9,6.9,69,0.00,OVC,,0.77,255.0,WeatherDisplay:10.37,2013-08-06 17:08:00,
2013-08-06 12:10:00,83.8,73.4,29.78,NNE,33,2.2,4.6,71,0.00,OVC,,0.77,243.0,WeatherDisplay:10.37,2013-08-06 17:10:00,
2013-08-06 12:11:00,83.5,73.1,29.77,SE,136,1.5,4.6,71,0.00,OVC,,0.77,239.0,WeatherDisplay:10.37,2013-08-06 17:11:00,
2013-08-06 12:12:00,83.4,73.4,29.77,SSE,162,2.3,4.6,72,0.00,OVC,,0.77,239.0,WeatherDisplay:10.37,2013-08-06 17:12:00,
2013-08-06 12:13:00,83.2,73.2,29.77,SSE,165,3.5,3.5,72,0.00,OVC,,0.77,236.0,WeatherDisplay:10.37,2013-08-06 17:13:00,
2013-08-06 12:15:00,82.8,73.3,29.77,South,183,4.5,5.8,73,0.00,OVC,,0.77,227.0,WeatherDisplay:10.37,2013-08-06 17:15:00,
2013-08-06 12:16:00,82.7,73.2,29.77,SW,216,1.0,3.5,73,0.00,OVC,,0.77,213.0,WeatherDisplay:10.37,2013-08-06 17:16:00,
2013-08-06 12:17:00,82.7,73.6,29.77,SW,227,1.2,3.5,74,0.00,OVC,,0.77,207.0,WeatherDisplay:10.37,2013-08-06 17:17:00,
2013-08-06 12:18:00,82.7,73.6,29.77,SW,227,0.8,3.5,74,0.00,OVC,,0.77,207.0,WeatherDisplay:10.37,2013-08-06 17:18:00,
2013-08-06 12:20:00,82.4,73.7,29.77,South,186,0.2,1.0,75,0.00,OVC,,0.77,190.0,WeatherDisplay:10.37,2013-08-06 17:20:00,
2013-08-06 12:22:00,82.1,73.4,29.77,SSW,202,1.1,3.5,75,0.00,OVC,,0.77,188.0,WeatherDisplay:10.37,2013-08-06 17:22:00,
2013-08-06 12:23:00,82.1,73.4,29.77,SSW,202,0.5,1.2,75,0.00,OVC,,0.77,193.0,WeatherDisplay:10.37,2013-08-06 17:23:00,
2013-08-06 12:25:00,82.2,73.5,29.77,South,177,1.2,2.3,75,0.00,OVC,,0.77,227.0,WeatherDisplay:10.37,2013-08-06 17:25:00,
2013-08-06 12:27:00,82.3,74.4,29.77,South,185,2.6,9.2,77,0.00,OVC,,0.77,244.0,WeatherDisplay:10.37,2013-08-06 17:27:00,
2013-08-06 12:28:00,82.3,74.4,29.77,South,175,1.3,4.6,77,0.00,OVC,,0.77,244.0,WeatherDisplay:10.37,2013-08-06 17:28:00,
2013-08-06 12:30:00,82.3,73.6,29.77,SSE,151,2.8,3.5,75,0.00,OVC,,0.77,244.0,WeatherDisplay:10.37,2013-08-06 17:30:00,
2013-08-06 12:32:00,82.2,73.5,29.77,SW,225,2.5,3.5,75,0.00,OVC,,0.77,260.0,WeatherDisplay:10.37,2013-08-06 17:32:00,
2013-08-06 12:33:00,82.1,73.0,29.77,South,182,1.8,3.5,74,0.00,OVC,,0.77,283.0,WeatherDisplay:10.37,2013-08-06 17:33:00,
2013-08-06 12:35:00,82.3,73.6,29.77,SSE,157,1.8,3.5,75,0.00,OVC,,0.77,279.0,WeatherDisplay:10.37,2013-08-06 17:35:00,
2013-08-06 12:37:00,82.3,73.2,29.77,South,171,1.5,3.5,74,0.00,OVC,,0.77,346.0,WeatherDisplay:10.37,2013-08-06 17:37:00,
2013-08-06 12:38:00,82.3,73.2,29.77,SSW,192,3.2,4.0,74,0.00,OVC,,0.77,346.0,WeatherDisplay:10.37,2013-08-06 17:38:00,
2013-08-06 12:40:00,82.9,74.2,29.77,SW,221,0.6,3.5,75,0.00,OVC,,0.77,446.0,WeatherDisplay:10.37,2013-08-06 17:40:00,
2013-08-06 12:42:00,83.5,74.3,29.77,South,183,2.3,4.0,74,0.00,OVC,,0.77,446.0,WeatherDisplay:10.37,2013-08-06 17:42:00,
2013-08-06 12:43:00,83.8,73.8,29.77,South,191,2.2,3.5,72,0.00,OVC,,0.77,705.0,WeatherDisplay:10.37,2013-08-06 17:43:00,
2013-08-06 12:44:00,83.9,73.5,29.77,South,177,2.6,4.0,71,0.00,OVC,,0.77,700.0,WeatherDisplay:10.37,2013-08-06 17:44:00,
2013-08-06 12:45:00,84.2,73.3,29.77,SSE,158,1.6,4.6,70,0.00,OVC,,0.77,700.0,WeatherDisplay:10.37,2013-08-06 17:45:00,
2013-08-06 12:47:00,84.5,73.2,29.77,SSE,167,2.2,6.9,69,0.00,OVC,,0.77,863.0,WeatherDisplay:10.37,2013-08-06 17:47:00,
2013-08-06 12:48:00,84.7,73.4,29.77,SSE,155,2.8,6.9,69,0.00,OVC,,0.77,861.0,WeatherDisplay:10.37,2013-08-06 17:48:00,
2013-08-06 12:49:00,84.8,72.6,29.77,SE,126,3.2,6.9,67,0.00,OVC,,0.77,861.0,WeatherDisplay:10.37,2013-08-06 17:49:00,
2013-08-06 12:51:00,84.9,72.7,29.77,SSW,198,3.9,5.8,67,0.00,OVC,,0.77,863.0,WeatherDisplay:10.37,2013-08-06 17:51:00,
2013-08-06 12:52:00,85.3,74.0,29.77,ENE,65,1.2,2.3,69,0.00,OVC,,0.77,858.0,WeatherDisplay:10.37,2013-08-06 17:52:00,
2013-08-06 12:53:00,85.7,75.6,29.77,South,169,2.3,5.0,72,0.00,OVC,,0.77,860.0,WeatherDisplay:10.37,2013-08-06 17:53:00,
2013-08-06 12:54:00,85.9,74.5,29.77,SE,142,3.0,9.0,69,0.00,OVC,,0.77,865.0,WeatherDisplay:10.37,2013-08-06 17:54:00,
2013-08-06 12:56:00,85.9,74.1,29.78,SSW,211,1.3,9.2,68,0.00,OVC,,0.77,875.0,WeatherDisplay:10.37,2013-08-06 17:56:00,
2013-08-06 12:58:00,85.9,73.2,29.78,SSE,153,3.0,4.6,66,0.00,OVC,,0.77,837.0,WeatherDisplay:10.37,2013-08-06 17:58:00,
2013-08-06 12:59:00,85.8,74.0,29.78,SSE,153,0.0,4.6,68,0.00,OVC,,0.77,884.0,WeatherDisplay:10.37,2013-08-06 17:59:00,
2013-08-06 13:01:00,85.8,74.9,29.77,South,169,1.3,3.5,70,0.00,OVC,,0.77,854.0,WeatherDisplay:10.37,2013-08-06 18:01:00,
2013-08-06 13:03:00,85.9,73.7,29.77,West,261,3.3,3.5,67,0.00,OVC,,0.77,826.0,WeatherDisplay:10.37,2013-08-06 18:03:00,
2013-08-06 13:04:00,86.0,74.2,29.77,South,184,3.0,6.0,68,0.00,OVC,,0.77,800.0,WeatherDisplay:10.37,2013-08-06 18:04:00,
2013-08-06 13:07:00,86.7,73.5,29.77,SSE,148,0.8,8.1,65,0.00,OVC,,0.77,684.0,WeatherDisplay:10.37,2013-08-06 18:07:00,
2013-08-06 13:08:00,86.8,73.6,29.78,SSE,150,0.1,3.5,65,0.00,OVC,,0.77,684.0,WeatherDisplay:10.37,2013-08-06 18:08:00,
2013-08-06 13:09:00,86.8,73.6,29.78,SSE,161,1.5,2.0,65,0.00,OVC,,0.77,679.0,WeatherDisplay:10.37,2013-08-06 18:09:00,
2013-08-06 13:12:00,87.2,74.9,29.78,SSE,165,0.0,3.5,67,0.00,OVC,,0.77,782.0,WeatherDisplay:10.37,2013-08-06 18:12:00,
2013-08-06 13:13:00,87.4,75.1,29.78,SW,231,2.0,3.5,67,0.00,OVC,,0.77,664.0,WeatherDisplay:10.37,2013-08-06 18:13:00,
2013-08-06 13:14:00,87.4,75.1,29.78,WSW,244,2.3,3.5,67,0.00,OVC,,0.77,664.0,WeatherDisplay:10.37,2013-08-06 18:14:00,
2013-08-06 13:17:00,86.7,72.1,29.78,SSW,206,2.2,4.6,62,0.00,OVC,,0.77,559.0,WeatherDisplay:10.37,2013-08-06 18:17:00,
2013-08-06 13:19:00,86.6,73.0,29.78,South,175,4.8,8.1,64,0.00,OVC,,0.77,564.0,WeatherDisplay:10.37,2013-08-06 18:19:00,
2013-08-06 13:22:00,86.6,73.4,29.78,South,187,1.3,5.8,65,0.00,OVC,,0.77,592.0,WeatherDisplay:10.37,2013-08-06 18:22:00,
2013-08-06 13:24:00,86.7,73.1,29.78,SSE,163,0.9,3.5,64,0.00,OVC,,0.77,643.0,WeatherDisplay:10.37,2013-08-06 18:24:00,
2013-08-06 13:25:00,86.7,73.5,29.78,SSE,163,0.6,2.3,65,0.00,OVC,,0.77,457.0,WeatherDisplay:10.37,2013-08-06 18:25:00,
2013-08-06 13:27:00,86.8,74.5,29.78,South,169,1.5,3.5,67,0.00,OVC,,0.77,403.0,WeatherDisplay:10.37,2013-08-06 18:27:00,
2013-08-06 13:29:00,86.7,74.0,29.78,WSW,237,1.3,2.3,66,0.00,OVC,,0.77,392.0,WeatherDisplay:10.37,2013-08-06 18:29:00,
2013-08-06 13:30:00,86.6,74.3,29.78,WSW,252,2.0,4.0,67,0.00,OVC,,0.77,450.0,WeatherDisplay:10.37,2013-08-06 18:30:00,
2013-08-06 13:33:00,86.3,74.0,29.78,SW,216,2.8,4.0,67,0.00,OVC,,0.77,731.0,WeatherDisplay:10.37,2013-08-06 18:33:00,
2013-08-06 13:34:00,86.3,74.5,29.78,WSW,243,1.8,4.0,68,0.00,OVC,,0.77,527.0,WeatherDisplay:10.37,2013-08-06 18:34:00,
2013-08-06 13:35:00,86.5,74.7,29.78,SW,234,3.9,4.6,68,0.00,OVC,,0.77,512.0,WeatherDisplay:10.37,2013-08-06 18:35:00,
2013-08-06 13:38:00,86.6,74.3,29.78,WSW,256,4.0,5.8,67,0.00,OVC,,0.77,573.0,WeatherDisplay:10.37,2013-08-06 18:38:00,
2013-08-06 13:39:00,86.6,74.3,29.78,SW,223,3.3,5.8,67,0.00,OVC,,0.77,619.0,WeatherDisplay:10.37,2013-08-06 18:39:00,
2013-08-06 13:40:00,86.4,74.1,29.78,WSW,240,1.9,3.5,67,0.00,OVC,,0.77,619.0,WeatherDisplay:10.37,2013-08-06 18:40:00,
2013-08-06 13:43:00,86.3,74.5,29.77,SW,215,1.2,3.5,68,0.00,OVC,,0.77,543.0,WeatherDisplay:10.37,2013-08-06 18:43:00,
2013-08-06 13:44:00,86.1,73.9,29.77,SW,215,0.1,3.5,67,0.00,OVC,,0.77,360.0,WeatherDisplay:10.37,2013-08-06 18:44:00,
2013-08-06 13:46:00,86.0,74.2,29.77,SW,217,0.3,2.0,68,0.00,OVC,,0.77,371.0,WeatherDisplay:10.37,2013-08-06 18:46:00,
2013-08-06 13:48:00,86.1,73.9,29.77,South,187,3.0,4.6,67,0.00,OVC,,0.77,434.0,WeatherDisplay:10.37,2013-08-06 18:48:00,
2013-08-06 13:49:00,86.2,74.4,29.76,South,169,1.0,4.6,68,0.00,OVC,,0.77,434.0,WeatherDisplay:10.37,2013-08-06 18:49:00,
2013-08-06 13:51:00,86.4,75.0,29.76,South,184,1.3,3.5,69,0.00,OVC,,0.77,540.0,WeatherDisplay:10.37,2013-08-06 18:51:00,
2013-08-06 13:54:00,86.7,73.5,29.76,SSE,159,3.6,3.6,65,0.00,OVC,,0.77,573.0,WeatherDisplay:10.37,2013-08-06 18:54:00,
2013-08-06 13:55:00,86.8,73.6,29.76,WSW,240,2.8,4.6,65,0.00,OVC,,0.77,573.0,WeatherDisplay:10.37,2013-08-06 18:55:00,
2013-08-06 13:56:00,86.8,73.6,29.76,SW,227,3.2,6.9,65,0.00,OVC,,0.77,682.0,WeatherDisplay:10.37,2013-08-06 18:56:00,
2013-08-06 13:57:00,86.7,74.0,29.76,SW,227,1.6,6.9,66,0.00,OVC,,0.77,773.0,WeatherDisplay:10.37,2013-08-06 18:57:00,
2013-08-06 13:59:00,87.1,73.9,29.75,SSE,161,2.8,4.0,65,0.00,OVC,,0.77,810.0,WeatherDisplay:10.37,2013-08-06 18:59:00,
2013-08-06 14:00:00,87.2,74.0,29.75,SSW,212,3.9,4.6,65,0.00,OVC,,0.77,777.0,WeatherDisplay:10.37,2013-08-06 19:00:00,
2013-08-06 14:02:00,87.5,74.7,29.75,SW,216,2.1,3.5,66,0.00,OVC,,0.77,682.0,WeatherDisplay:10.37,2013-08-06 19:02:00,
2013-08-06 14:05:00,87.9,73.7,29.75,SSW,193,6.0,11.5,63,0.00,OVC,,0.77,643.0,WeatherDisplay:10.37,2013-08-06 19:05:00,
2013-08-06 14:07:00,87.9,74.2,29.75,WSW,238,3.4,4.6,64,0.00,OVC,,0.77,779.0,WeatherDisplay:10.37,2013-08-06 19:07:00,
2013-08-06 14:08:00,87.9,74.2,29.75,SE,142,2.9,5.8,64,0.00,OVC,,0.77,779.0,WeatherDisplay:10.37,2013-08-06 19:08:00,
2013-08-06 14:10:00,87.9,74.7,29.75,SSE,167,2.5,3.5,65,0.00,OVC,,0.77,536.0,WeatherDisplay:10.37,2013-08-06 19:10:00,
2013-08-06 14:12:00,88.3,75.0,29.75,WSW,244,0.6,2.3,65,0.00,OVC,,0.77,686.0,WeatherDisplay:10.37,2013-08-06 19:12:00,
2013-08-06 14:13:00,88.3,75.0,29.75,SE,138,1.7,3.0,65,0.00,OVC,,0.77,686.0,WeatherDisplay:10.37,2013-08-06 19:13:00,
2013-08-06 14:15:00,88.5,73.3,29.74,SSE,155,2.4,3.5,61,0.00,OVC,,0.77,726.0,WeatherDisplay:10.37,2013-08-06 19:15:00,
2013-08-06 14:16:00,88.6,73.4,29.74,SSE,167,3.7,4.0,61,0.00,OVC,,0.77,726.0,WeatherDisplay:10.37,2013-08-06 19:16:00,
2013-08-06 14:17:00,88.6,72.9,29.74,South,185,1.8,4.6,60,0.00,OVC,,0.77,879.0,WeatherDisplay:10.37,2013-08-06 19:17:00,
2013-08-06 14:18:00,88.8,74.1,29.74,SE,143,1.2,3.5,62,0.00,OVC,,0.77,870.0,WeatherDisplay:10.37,2013-08-06 19:18:00,
2013-08-06 14:20:00,89.0,72.8,29.74,SW,233,3.5,6.9,59,0.00,OVC,,0.77,926.0,WeatherDisplay:10.37,2013-08-06 19:20:00,
2013-08-06 14:21:00,89.1,73.4,29.74,SE,138,4.0,6.9,60,0.00,OVC,,0.77,858.0,WeatherDisplay:10.37,2013-08-06 19:21:00,
2013-08-06 14:23:00,88.9,73.2,29.74,SW,218,3.1,5.0,60,0.00,OVC,,0.77,858.0,WeatherDisplay:10.37,2013-08-06 19:23:00,
2013-08-06 14:24:00,88.8,73.1,29.74,SSW,207,2.6,4.6,60,0.00,OVC,,0.77,513.0,WeatherDisplay:10.37,2013-08-06 19:24:00,
2013-08-06 14:25:00,89.0,74.3,29.74,SSW,193,2.6,5.8,62,0.00,OVC,,0.77,585.0,WeatherDisplay:10.37,2013-08-06 19:25:00,
2013-08-06 14:26:00,89.1,73.9,29.74,SW,218,3.3,9.2,61,0.00,OVC,,0.77,891.0,WeatherDisplay:10.37,2013-08-06 19:26:00,
2013-08-06 14:28:00,88.8,73.6,29.74,SSE,161,1.9,4.0,61,0.00,OVC,,0.77,833.0,WeatherDisplay:10.37,2013-08-06 19:28:00,
2013-08-06 14:29:00,88.8,73.6,29.74,SSE,163,3.1,3.5,61,0.00,OVC,,0.77,650.0,WeatherDisplay:10.37,2013-08-06 19:29:00,
2013-08-06 14:30:00,88.8,74.1,29.74,South,182,3.0,4.6,62,0.00,OVC,,0.77,635.0,WeatherDisplay:10.37,2013-08-06 19:30:00,
2013-08-06 14:31:00,88.8,73.6,29.74,SSE,150,3.2,4.6,61,0.00,OVC,,0.77,635.0,WeatherDisplay:10.37,2013-08-06 19:31:00,
2013-08-06 14:32:00,89.0,73.8,29.74,SSW,205,3.1,6.9,61,0.00,OVC,,0.77,635.0,WeatherDisplay:10.37,2013-08-06 19:32:00,
2013-08-06 14:33:00,89.1,74.4,29.74,South,172,2.1,3.5,62,0.00,OVC,,0.77,635.0,WeatherDisplay:10.37,2013-08-06 19:33:00,
2013-08-06 14:34:00,89.1,74.4,29.74,SE,142,2.5,5.0,62,0.00,OVC,,0.77,749.0,WeatherDisplay:10.37,2013-08-06 19:34:00,
2013-08-06 14:36:00,89.2,75.0,29.74,SSW,202,2.9,5.8,63,0.00,OVC,,0.77,728.0,WeatherDisplay:10.37,2013-08-06 19:36:00,
2013-08-06 14:38:00,89.3,74.1,29.73,SSW,194,3.4,6.0,61,0.00,OVC,,0.77,728.0,WeatherDisplay:10.37,2013-08-06 19:38:00,
2013-08-06 14:39:00,89.3,74.6,29.73,SSW,200,4.6,8.1,62,0.00,OVC,,0.77,728.0,WeatherDisplay:10.37,2013-08-06 19:39:00,
2013-08-06 14:41:00,89.2,74.0,29.73,South,177,4.3,9.0,61,0.00,OVC,,0.77,364.0,WeatherDisplay:10.37,2013-08-06 19:41:00,
2013-08-06 14:43:00,88.8,74.1,29.73,SE,132,2.3,11.5,62,0.00,OVC,,0.77,417.0,WeatherDisplay:10.37,2013-08-06 19:43:00,
2013-08-06 14:44:00,88.6,73.4,29.73,South,173,3.9,3.9,61,0.00,OVC,,0.77,585.0,WeatherDisplay:10.37,2013-08-06 19:44:00,
2013-08-06 14:46:00,88.1,73.0,29.73,SSE,168,4.7,9.2,61,0.00,OVC,,0.77,591.0,WeatherDisplay:10.37,2013-08-06 19:46:00,
2013-08-06 14:48:00,87.9,73.3,29.73,NNW,344,2.3,9.2,62,0.00,OVC,,0.77,591.0,WeatherDisplay:10.37,2013-08-06 19:48:00,
2013-08-06 14:49:00,87.9,73.3,29.73,SSE,157,3.7,6.0,62,0.00,OVC,,0.77,763.0,WeatherDisplay:10.37,2013-08-06 19:49:00,
2013-08-06 14:51:00,88.4,73.2,29.73,SSW,211,3.1,6.9,61,0.00,OVC,,0.77,865.0,WeatherDisplay:10.37,2013-08-06 19:51:00,
2013-08-06 14:52:00,88.5,73.3,29.73,SSW,202,1.5,6.9,61,0.00,OVC,,0.77,863.0,WeatherDisplay:10.37,2013-08-06 19:52:00,
2013-08-06 14:53:00,88.9,74.7,29.72,SSE,153,1.0,4.6,63,0.00,OVC,,0.77,851.0,WeatherDisplay:10.37,2013-08-06 19:53:00,
2013-08-06 14:54:00,89.0,73.8,29.72,SSE,161,3.6,10.0,61,0.00,OVC,,0.77,849.0,WeatherDisplay:10.37,2013-08-06 19:54:00,
2013-08-06 14:56:00,89.1,72.9,29.72,SSE,153,5.0,6.9,59,0.00,OVC,,0.77,805.0,WeatherDisplay:10.37,2013-08-06 19:56:00,
2013-08-06 14:57:00,89.1,72.9,29.72,SSE,155,4.2,6.9,59,0.00,OVC,,0.77,800.0,WeatherDisplay:10.37,2013-08-06 19:57:00,
2013-08-06 14:58:00,89.0,72.8,29.72,SSW,202,3.8,5.8,59,0.00,OVC,,0.77,812.0,WeatherDisplay:10.37,2013-08-06 19:58:00,
2013-08-06 14:59:00,89.1,72.4,29.72,SSW,200,4.8,7.0,58,0.00,OVC,,0.77,814.0,WeatherDisplay:10.37,2013-08-06 19:59:00,
2013-08-06 15:02:00,88.8,72.1,29.72,WSW,247,3.9,9.2,58,0.00,OVC,,0.77,809.0,WeatherDisplay:10.37,2013-08-06 20:02:00,
2013-08-06 15:03:00,88.8,72.6,29.72,SE,139,4.0,6.9,59,0.00,OVC,,0.77,809.0,WeatherDisplay:10.37,2013-08-06 20:03:00,
2013-08-06 15:04:00,89.0,72.3,29.72,SSE,162,5.8,13.8,58,0.00,OVC,,0.77,810.0,WeatherDisplay:10.37,2013-08-06 20:04:00,
2013-08-06 15:08:00,89.0,73.8,29.72,South,189,1.9,4.6,61,0.00,OVC,,0.77,800.0,WeatherDisplay:10.37,2013-08-06 20:08:00,
2013-08-06 15:09:00,89.2,73.5,29.72,SE,140,3.3,4.6,60,0.00,OVC,,0.77,796.0,WeatherDisplay:10.37,2013-08-06 20:09:00,
2013-08-06 15:13:00,89.5,73.3,29.72,South,190,4.1,7.0,59,0.00,OVC,,0.77,788.0,WeatherDisplay:10.37,2013-08-06 20:13:00,
2013-08-06 15:14:00,89.5,72.8,29.72,SSE,164,5.5,6.9,58,0.00,OVC,,0.77,789.0,WeatherDisplay:10.37,2013-08-06 20:14:00,
2013-08-06 15:18:00,89.4,73.2,29.72,SW,220,2.4,6.0,59,0.00,OVC,,0.77,779.0,WeatherDisplay:10.37,2013-08-06 20:18:00,
2013-08-06 15:19:00,89.4,73.2,29.72,SW,235,2.7,7.0,59,0.00,OVC,,0.77,779.0,WeatherDisplay:10.37,2013-08-06 20:19:00,
2013-08-06 15:20:00,89.2,73.0,29.72,West,278,6.7,9.0,59,0.00,OVC,,0.77,775.0,WeatherDisplay:10.37,2013-08-06 20:20:00,
2013-08-06 15:24:00,88.8,73.6,29.72,SSW,200,5.4,11.5,61,0.00,OVC,,0.77,775.0,WeatherDisplay:10.37,2013-08-06 20:24:00,
2013-08-06 15:25:00,88.9,73.7,29.71,SSE,159,2.9,8.1,61,0.00,OVC,,0.77,775.0,WeatherDisplay:10.37,2013-08-06 20:25:00,
2013-08-06 15:29:00,89.3,74.6,29.71,SSE,155,3.2,4.6,62,0.00,OVC,,0.77,775.0,WeatherDisplay:10.37,2013-08-06 20:29:00,
2013-08-06 15:30:00,89.5,74.8,29.71,SSE,148,2.4,4.6,62,0.00,OVC,,0.77,777.0,WeatherDisplay:10.37,2013-08-06 20:30:00,
2013-08-06 15:32:00,89.8,74.1,29.71,WSW,242,4.4,9.2,60,0.00,OVC,,0.77,777.0,WeatherDisplay:10.37,2013-08-06 20:32:00,
2013-08-06 15:34:00,89.8,73.6,29.71,SSE,150,3.6,5.8,59,0.00,OVC,,0.77,784.0,WeatherDisplay:10.37,2013-08-06 20:34:00,
2013-08-06 15:35:00,89.7,74.0,29.71,SSE,164,3.8,5.0,60,0.00,OVC,,0.77,791.0,WeatherDisplay:10.37,2013-08-06 20:35:00,
2013-08-06 15:36:00,89.7,74.0,29.71,SSE,163,2.9,5.8,60,0.00,OVC,,0.77,738.0,WeatherDisplay:10.37,2013-08-06 20:36:00,
2013-08-06 15:37:00,89.6,73.4,29.71,South,183,2.6,5.8,59,0.00,OVC,,0.77,738.0,WeatherDisplay:10.37,2013-08-06 20:37:00,
2013-08-06 15:39:00,89.7,73.4,29.71,SSW,199,5.0,10.0,59,0.00,OVC,,0.77,657.0,WeatherDisplay:10.37,2013-08-06 20:39:00,
2013-08-06 15:40:00,89.6,73.4,29.71,WSW,239,5.9,11.5,59,0.00,OVC,,0.77,478.0,WeatherDisplay:10.37,2013-08-06 20:40:00,
2013-08-06 15:41:00,89.4,73.2,29.71,SSE,166,4.5,9.2,59,0.00,OVC,,0.77,401.0,WeatherDisplay:10.37,2013-08-06 20:41:00,
2013-08-06 15:42:00,89.2,73.5,29.71,SSW,202,2.7,3.5,60,0.00,OVC,,0.77,401.0,WeatherDisplay:10.37,2013-08-06 20:42:00,
2013-08-06 15:44:00,89.1,73.9,29.71,SE,143,3.9,8.0,61,0.00,OVC,,0.77,401.0,WeatherDisplay:10.37,2013-08-06 20:44:00,
2013-08-06 15:45:00,89.1,73.9,29.71,SSW,208,3.5,6.9,61,0.00,OVC,,0.77,860.0,WeatherDisplay:10.37,2013-08-06 20:45:00,
2013-08-06 15:46:00,89.3,74.1,29.71,SSE,163,3.5,5.8,61,0.00,OVC,,0.77,849.0,WeatherDisplay:10.37,2013-08-06 20:46:00,
2013-08-06 15:48:00,89.3,74.1,29.71,SSE,156,3.7,8.1,61,0.00,OVC,,0.77,849.0,WeatherDisplay:10.37,2013-08-06 20:48:00,
2013-08-06 15:50:00,89.5,74.3,29.71,SSW,200,3.7,5.8,61,0.00,OVC,,0.77,434.0,WeatherDisplay:10.37,2013-08-06 20:50:00,
2013-08-06 15:51:00,89.4,73.7,29.71,SE,146,5.2,8.1,60,0.00,OVC,,0.77,782.0,WeatherDisplay:10.37,2013-08-06 20:51:00,
2013-08-06 15:53:00,89.4,73.7,29.71,South,171,4.2,10.4,60,0.00,OVC,,0.77,763.0,WeatherDisplay:10.37,2013-08-06 20:53:00,
2013-08-06 15:55:00,89.5,74.3,29.71,South,186,3.9,8.1,61,0.00,OVC,,0.77,763.0,WeatherDisplay:10.37,2013-08-06 20:55:00,
2013-08-06 15:56:00,89.6,74.9,29.71,South,183,1.6,6.9,62,0.00,OVC,,0.77,763.0,WeatherDisplay:10.37,2013-08-06 20:56:00,
2013-08-06 15:57:00,89.6,73.4,29.71,South,181,6.3,11.5,59,0.00,OVC,,0.77,763.0,WeatherDisplay:10.37,2013-08-06 20:57:00,
2013-08-06 15:58:00,89.6,73.4,29.72,SSW,206,5.1,9.2,59,0.00,OVC,,0.77,763.0,WeatherDisplay:10.37,2013-08-06 20:58:00,
2013-08-06 16:00:00,89.5,73.8,29.72,SE,124,5.7,9.2,60,0.00,OVC,,0.77,828.0,WeatherDisplay:10.37,2013-08-06 21:00:00,
2013-08-06 16:01:00,89.6,73.9,29.72,WSW,255,4.4,9.0,60,0.00,OVC,,0.77,803.0,WeatherDisplay:10.37,2013-08-06 21:01:00,
2013-08-06 16:02:00,89.6,73.9,29.72,SW,227,5.3,5.8,60,0.00,OVC,,0.77,803.0,WeatherDisplay:10.37,2013-08-06 21:02:00,
2013-08-06 16:03:00,89.6,73.9,29.71,SSE,161,6.3,10.4,60,0.00,OVC,,0.77,803.0,WeatherDisplay:10.37,2013-08-06 21:03:00,
2013-08-06 16:05:00,89.3,73.6,29.72,WSW,242,3.9,9.2,60,0.00,OVC,,0.77,684.0,WeatherDisplay:10.37,2013-08-06 21:05:00,
2013-08-06 16:07:00,89.1,73.4,29.72,WSW,246,5.0,6.9,60,0.00,OVC,,0.77,800.0,WeatherDisplay:10.37,2013-08-06 21:07:00,
2013-08-06 16:08:00,89.2,74.0,29.72,South,173,2.4,4.6,61,0.00,OVC,,0.77,777.0,WeatherDisplay:10.37,2013-08-06 21:08:00,
2013-08-06 16:10:00,89.7,74.9,29.72,SSW,197,2.3,3.5,62,0.00,OVC,,0.77,707.0,WeatherDisplay:10.37,2013-08-06 21:10:00,
2013-08-06 16:12:00,90.1,74.8,29.72,WSW,244,5.5,6.0,61,0.00,OVC,,0.77,693.0,WeatherDisplay:10.37,2013-08-06 21:12:00,
2013-08-06 16:13:00,90.3,74.5,29.72,SSE,156,4.6,6.9,60,0.00,OVC,,0.77,768.0,WeatherDisplay:10.37,2013-08-06 21:13:00,
2013-08-06 16:14:00,90.2,73.9,29.72,WSW,245,3.0,8.1,59,0.00,OVC,,0.77,744.0,WeatherDisplay:10.37,2013-08-06 21:14:00,
2013-08-06 16:15:00,90.2,73.9,29.72,SSW,211,4.0,6.9,59,0.00,OVC,,0.77,744.0,WeatherDisplay:10.37,2013-08-06 21:15:00,
2013-08-06 16:16:00,90.2,73.9,29.72,South,191,4.2,6.9,59,0.00,OVC,,0.77,744.0,WeatherDisplay:10.37,2013-08-06 21:16:00,
2013-08-06 16:17:00,90.2,74.4,29.72,WSW,238,3.1,5.0,60,0.00,OVC,,0.77,744.0,WeatherDisplay:10.37,2013-08-06 21:17:00,
2013-08-06 16:19:00,90.2,74.4,29.72,SW,214,1.2,4.6,60,0.00,OVC,,0.77,751.0,WeatherDisplay:10.37,2013-08-06 21:19:00,
2013-08-06 16:21:00,90.4,74.6,29.72,WSW,237,1.7,4.6,60,0.00,OVC,,0.77,733.0,WeatherDisplay:10.37,2013-08-06 21:21:00,
2013-08-06 16:22:00,90.5,75.2,29.72,SSW,202,1.6,3.5,61,0.00,OVC,,0.77,735.0,WeatherDisplay:10.37,2013-08-06 21:22:00,
2013-08-06 16:24:00,90.5,74.7,29.72,WSW,240,2.8,6.9,60,0.00,OVC,,0.77,675.0,WeatherDisplay:10.37,2013-08-06 21:24:00,
2013-08-06 16:26:00,90.6,75.3,29.72,SSE,157,2.2,6.9,61,0.00,OVC,,0.77,675.0,WeatherDisplay:10.37,2013-08-06 21:26:00,
2013-08-06 16:27:00,90.5,75.2,29.72,South,175,1.9,4.6,61,0.00,OVC,,0.77,675.0,WeatherDisplay:10.37,2013-08-06 21:27:00,
2013-08-06 16:29:00,90.4,75.6,29.71,SSE,159,3.8,4.6,62,0.00,OVC,,0.77,675.0,WeatherDisplay:10.37,2013-08-06 21:29:00,
2013-08-06 16:31:00,90.5,75.2,29.72,SSE,155,1.6,3.5,61,0.00,OVC,,0.77,415.0,WeatherDisplay:10.37,2013-08-06 21:31:00,
2013-08-06 16:32:00,90.4,75.1,29.72,SSE,155,1.5,3.5,61,0.00,OVC,,0.77,415.0,WeatherDisplay:10.37,2013-08-06 21:32:00,
2013-08-06 16:34:00,90.3,74.5,29.71,South,175,2.9,5.8,60,0.00,OVC,,0.77,492.0,WeatherDisplay:10.37,2013-08-06 21:34:00,
2013-08-06 16:36:00,89.9,75.1,29.71,SSE,155,1.1,4.0,62,0.00,OVC,,0.77,264.0,WeatherDisplay:10.37,2013-08-06 21:36:00,
2013-08-06 16:37:00,89.8,75.0,29.71,SSE,158,1.8,3.5,62,0.00,OVC,,0.77,253.0,WeatherDisplay:10.37,2013-08-06 21:37:00,
2013-08-06 16:40:00,89.2,73.5,29.71,SSW,209,4.9,8.1,60,0.00,OVC,,0.77,230.0,WeatherDisplay:10.37,2013-08-06 21:40:00,
2013-08-06 16:41:00,88.9,74.2,29.71,South,174,3.0,6.9,62,0.00,OVC,,0.77,246.0,WeatherDisplay:10.37,2013-08-06 21:41:00,
2013-08-06 16:42:00,88.9,74.2,29.71,SSW,194,2.6,6.9,62,0.00,OVC,,0.77,246.0,WeatherDisplay:10.37,2013-08-06 21:42:00,
2013-08-06 16:45:00,88.5,74.3,29.71,SSW,192,1.9,4.6,63,0.00,OVC,,0.77,378.0,WeatherDisplay:10.37,2013-08-06 21:45:00,
2013-08-06 16:46:00,88.4,74.7,29.71,SSE,157,1.3,4.0,64,0.00,OVC,,0.77,364.0,WeatherDisplay:10.37,2013-08-06 21:46:00,
2013-08-06 16:47:00,88.4,74.7,29.71,SSE,157,1.5,3.0,64,0.00,OVC,,0.77,364.0,WeatherDisplay:10.37,2013-08-06 21:47:00,
2013-08-06 16:48:00,88.4,74.2,29.71,SSW,192,2.4,4.0,63,0.00,OVC,,0.77,446.0,WeatherDisplay:10.37,2013-08-06 21:48:00,
2013-08-06 16:50:00,88.6,75.3,29.71,SE,145,2.2,4.0,65,0.00,OVC,,0.77,621.0,WeatherDisplay:10.37,2013-08-06 21:50:00,
2013-08-06 16:52:00,89.1,74.4,29.71,SSW,209,4.0,9.2,62,0.00,OVC,,0.77,719.0,WeatherDisplay:10.37,2013-08-06 21:52:00,
2013-08-06 16:53:00,89.2,75.0,29.71,WSW,250,2.7,6.0,63,0.00,OVC,,0.77,659.0,WeatherDisplay:10.37,2013-08-06 21:53:00,
2013-08-06 16:55:00,89.5,74.3,29.71,SSE,159,4.6,6.9,61,0.00,OVC,,0.77,647.0,WeatherDisplay:10.37,2013-08-06 21:55:00,
2013-08-06 16:57:00,89.8,75.0,29.71,WSW,246,5.5,7.0,62,0.00,OVC,,0.77,617.0,WeatherDisplay:10.37,2013-08-06 21:57:00,
2013-08-06 16:58:00,89.9,74.6,29.71,WSW,246,6.7,8.0,61,0.00,OVC,,0.77,617.0,WeatherDisplay:10.37,2013-08-06 21:58:00,
2013-08-06 17:00:00,89.9,75.1,29.71,SW,221,2.3,6.9,62,0.00,OVC,,0.77,612.0,WeatherDisplay:10.37,2013-08-06 22:00:00,
2013-08-06 17:02:00,90.0,75.2,29.71,WSW,251,3.4,4.6,62,0.00,OVC,,0.77,329.0,WeatherDisplay:10.37,2013-08-06 22:02:00,
2013-08-06 17:03:00,89.9,75.1,29.71,South,185,3.4,4.6,62,0.00,OVC,,0.77,329.0,WeatherDisplay:10.37,2013-08-06 22:03:00,
2013-08-06 17:05:00,89.8,75.5,29.71,SW,229,5.8,7.0,63,0.00,OVC,,0.77,297.0,WeatherDisplay:10.37,2013-08-06 22:05:00,
2013-08-06 17:06:00,89.5,74.8,29.71,SW,230,4.1,10.4,62,0.00,OVC,,0.77,297.0,WeatherDisplay:10.37,2013-08-06 22:06:00,
2013-08-06 17:08:00,89.3,75.5,29.71,South,176,1.1,2.3,64,0.00,OVC,,0.77,197.0,WeatherDisplay:10.37,2013-08-06 22:08:00,
2013-08-06 17:10:00,89.1,75.8,29.71,SW,234,0.9,5.8,65,0.00,OVC,,0.77,197.0,WeatherDisplay:10.37,2013-08-06 22:10:00,
2013-08-06 17:11:00,89.1,75.3,29.71,SSE,161,1.8,4.0,64,0.00,OVC,,0.77,197.0,WeatherDisplay:10.37,2013-08-06 22:11:00,
2013-08-06 17:13:00,89.0,75.7,29.71,SSE,155,3.0,4.6,65,0.00,OVC,,0.77,142.0,WeatherDisplay:10.37,2013-08-06 22:13:00,
2013-08-06 17:14:00,89.0,75.7,29.71,SW,232,3.2,4.6,65,0.00,OVC,,0.77,142.0,WeatherDisplay:10.37,2013-08-06 22:14:00,
2013-08-06 17:15:00,88.8,76.4,29.71,SSW,202,0.6,3.5,67,0.00,OVC,,0.77,162.0,WeatherDisplay:10.37,2013-08-06 22:15:00,
2013-08-06 17:16:00,88.8,76.4,29.71,South,191,0.4,1.2,67,0.00,OVC,,0.77,162.0,WeatherDisplay:10.37,2013-08-06 22:16:00,
2013-08-06 17:19:00,89.0,76.2,29.71,SSE,158,1.9,4.0,66,0.00,OVC,,0.77,575.0,WeatherDisplay:10.37,2013-08-06 22:19:00,
2013-08-06 17:21:00,89.1,75.8,29.71,South,190,1.6,4.6,65,0.00,OVC,,0.77,543.0,WeatherDisplay:10.37,2013-08-06 22:21:00,
2013-08-06 17:22:00,89.2,75.9,29.71,SSW,209,1.2,3.5,65,0.00,OVC,,0.77,543.0,WeatherDisplay:10.37,2013-08-06 22:22:00,
2013-08-06 17:24:00,89.5,75.7,29.71,South,178,4.4,5.8,64,0.00,OVC,,0.77,524.0,WeatherDisplay:10.37,2013-08-06 22:24:00,
2013-08-06 17:25:00,89.3,75.5,29.71,SSW,206,3.1,5.8,64,0.00,OVC,,0.77,534.0,WeatherDisplay:10.37,2013-08-06 22:25:00,
2013-08-06 17:26:00,89.2,75.4,29.71,SSW,200,2.1,6.9,64,0.00,CLR,,0.77,548.0,WeatherDisplay:10.37,2013-08-06 22:26:00,
2013-08-06 17:27:00,89.2,75.9,29.71,SE,145,2.7,6.9,65,0.00,CLR,,0.77,548.0,WeatherDisplay:10.37,2013-08-06 22:27:00,
2013-08-06 17:29:00,89.3,76.0,29.71,South,180,1.5,3.5,65,0.00,CLR,,0.77,220.0,WeatherDisplay:10.37,2013-08-06 22:29:00,
2013-08-06 17:30:00,89.3,76.0,29.71,SSE,158,3.4,4.0,65,0.00,CLR,,0.77,197.0,WeatherDisplay:10.37,2013-08-06 22:30:00,
2013-08-06 17:32:00,89.0,75.2,29.71,SE,132,3.7,8.1,64,0.00,CLR,,0.77,134.0,WeatherDisplay:10.37,2013-08-06 22:32:00,
2013-08-06 17:34:00,88.5,75.2,29.71,SSW,202,3.5,3.5,65,0.00,CLR,,0.77,137.0,WeatherDisplay:10.37,2013-08-06 22:34:00,
2013-08-06 17:35:00,88.1,75.3,29.71,South,184,1.7,3.5,66,0.00,CLR,,0.77,160.0,WeatherDisplay:10.37,2013-08-06 22:35:00,
2013-08-06 17:37:00,87.9,75.6,29.71,SSE,159,0.8,2.3,67,0.00,CLR,,0.77,125.0,WeatherDisplay:10.37,2013-08-06 22:37:00,
2013-08-06 17:39:00,87.7,75.8,29.71,SSE,165,0.6,3.5,68,0.00,CLR,,0.77,123.0,WeatherDisplay:10.37,2013-08-06 22:39:00,
2013-08-06 17:40:00,87.6,75.7,29.71,SSE,150,1.3,3.0,68,0.00,CLR,,0.77,123.0,WeatherDisplay:10.37,2013-08-06 22:40:00,
2013-08-06 17:41:00,87.4,75.5,29.71,SSE,163,2.1,3.5,68,0.00,CLR,,0.77,116.0,WeatherDisplay:10.37,2013-08-06 22:41:00,
2013-08-06 17:43:00,87.3,75.4,29.71,South,172,1.5,3.5,68,0.00,CLR,,0.77,116.0,WeatherDisplay:10.37,2013-08-06 22:43:00,
2013-08-06 17:45:00,87.2,75.8,29.71,SSW,194,1.1,4.6,69,0.00,CLR,,0.77,116.0,WeatherDisplay:10.37,2013-08-06 22:45:00,
2013-08-06 17:47:00,87.2,76.2,29.71,SSW,194,0.0,0.0,70,0.00,CLR,,0.77,120.0,WeatherDisplay:10.37,2013-08-06 22:47:00,
2013-08-06 17:48:00,87.1,76.1,29.71,SSW,194,0.0,0.0,70,0.00,CLR,,0.77,121.0,WeatherDisplay:10.37,2013-08-06 22:48:00,
2013-08-06 17:50:00,87.0,75.6,29.71,SSE,159,0.7,2.3,69,0.00,CLR,,0.77,121.0,WeatherDisplay:10.37,2013-08-06 22:50:00,
2013-08-06 17:51:00,87.0,75.6,29.71,ESE,121,1.1,2.3,69,0.00,CLR,,0.77,120.0,WeatherDisplay:10.37,2013-08-06 22:51:00,
2013-08-06 17:52:00,86.9,75.9,29.71,West,279,0.7,2.3,70,0.00,CLR,,0.77,118.0,WeatherDisplay:10.37,2013-08-06 22:52:00,
2013-08-06 17:53:00,86.8,75.8,29.71,NNE,20,0.4,2.3,70,0.00,CLR,,0.77,118.0,WeatherDisplay:10.37,2013-08-06 22:53:00,
2013-08-06 17:55:00,86.7,75.7,29.71,South,187,0.3,0.0,70,0.00,CLR,,0.77,127.0,WeatherDisplay:10.37,2013-08-06 22:55:00,
2013-08-06 17:56:00,86.7,75.7,29.71,SSE,150,0.9,3.0,70,0.00,CLR,,0.77,137.0,WeatherDisplay:10.37,2013-08-06 22:56:00,
2013-08-06 17:57:00,86.7,75.7,29.71,SSE,147,1.6,3.5,70,0.00,CLR,,0.77,218.0,WeatherDisplay:10.37,2013-08-06 22:57:00,
2013-08-06 17:58:00,86.7,75.7,29.71,SW,222,1.0,3.5,70,0.00,CLR,,0.77,181.0,WeatherDisplay:10.37,2013-08-06 22:58:00,
2013-08-06 18:00:00,86.8,75.8,29.71,WSW,244,2.1,2.3,70,0.00,CLR,,0.77,438.0,WeatherDisplay:10.37,2013-08-06 23:00:00,
2013-08-06 18:01:00,87.1,76.1,29.71,ESE,107,3.3,4.6,70,0.00,CLR,,0.77,179.0,WeatherDisplay:10.37,2013-08-06 23:01:00,
2013-08-06 18:02:00,87.2,76.2,29.71,SSE,157,2.2,4.6,70,0.00,CLR,,0.77,172.0,WeatherDisplay:10.37,2013-08-06 23:02:00,
2013-08-06 18:03:00,87.4,76.0,29.71,South,176,3.0,4.6,69,0.00,CLR,,0.77,165.0,WeatherDisplay:10.37,2013-08-06 23:03:00,
2013-08-06 18:05:00,87.5,76.1,29.71,South,179,2.7,5.8,69,0.00,CLR,,0.77,146.0,WeatherDisplay:10.37,2013-08-06 23:05:00,
2013-08-06 18:06:00,87.5,76.1,29.71,SSW,198,2.7,5.8,69,0.00,CLR,,0.77,137.0,WeatherDisplay:10.37,2013-08-06 23:06:00,
2013-08-06 18:07:00,87.4,76.0,29.71,South,174,0.9,3.5,69,0.00,CLR,,0.77,134.0,WeatherDisplay:10.37,2013-08-06 23:07:00,
2013-08-06 18:08:00,87.4,76.4,29.71,South,174,0.1,1.2,70,0.00,CLR,,0.77,114.0,WeatherDisplay:10.37,2013-08-06 23:08:00,
2013-08-06 18:09:00,87.3,76.3,29.71,South,174,0.3,1.2,70,0.00,CLR,,0.77,100.0,WeatherDisplay:10.37,2013-08-06 23:09:00,
2013-08-06 18:10:00,87.2,76.6,29.71,South,173,0.7,2.0,71,0.00,CLR,,0.77,93.0,WeatherDisplay:10.37,2013-08-06 23:10:00,
2013-08-06 18:12:00,87.2,76.6,29.71,SSW,201,1.7,4.0,71,0.00,CLR,,0.77,88.0,WeatherDisplay:10.37,2013-08-06 23:12:00,
2013-08-06 18:13:00,87.1,76.1,29.71,SSE,152,3.3,5.8,70,0.00,CLR,,0.77,93.0,WeatherDisplay:10.37,2013-08-06 23:13:00,
2013-08-06 18:14:00,87.0,76.0,29.70,South,190,4.1,6.0,70,0.00,CLR,,0.77,100.0,WeatherDisplay:10.37,2013-08-06 23:14:00,
2013-08-06 18:15:00,87.0,76.5,29.70,South,184,3.0,6.9,71,0.00,CLR,,0.77,104.0,WeatherDisplay:10.37,2013-08-06 23:15:00,
2013-08-06 18:17:00,86.8,76.3,29.70,SSE,148,1.4,3.5,71,0.00,CLR,,0.77,100.0,WeatherDisplay:10.37,2013-08-06 23:17:00,
2013-08-06 18:18:00,86.7,76.2,29.70,SSW,195,2.7,6.0,71,0.00,CLR,,0.77,98.0,WeatherDisplay:10.37,2013-08-06 23:18:00,
2013-08-06 18:19:00,86.7,76.2,29.70,SSE,149,1.6,5.8,71,0.00,FEW,,0.77,102.0,WeatherDisplay:10.37,2013-08-06 23:19:00,
2013-08-06 18:20:00,86.6,76.1,29.70,SE,140,1.5,2.3,71,0.00,CLR,,0.77,109.0,WeatherDisplay:10.37,2013-08-06 23:20:00,
2013-08-06 18:21:00,86.6,76.1,29.70,SSW,198,1.5,3.5,71,0.00,CLR,,0.77,114.0,WeatherDisplay:10.37,2013-08-06 23:21:00,
2013-08-06 18:22:00,86.6,76.5,29.70,SSE,168,0.3,3.5,72,0.00,CLR,,0.77,109.0,WeatherDisplay:10.37,2013-08-06 23:22:00,
2013-08-06 18:23:00,86.5,76.4,29.70,South,178,0.6,1.2,72,0.00,FEW,,0.77,120.0,WeatherDisplay:10.37,2013-08-06 23:23:00,
2013-08-06 18:24:00,86.5,76.4,29.70,South,188,2.9,3.5,72,0.00,CLR,,0.77,162.0,WeatherDisplay:10.37,2013-08-06 23:24:00,
2013-08-06 18:25:00,86.6,76.1,29.70,South,186,3.7,5.8,71,0.00,CLR,,0.77,135.0,WeatherDisplay:10.37,2013-08-06 23:25:00,
2013-08-06 18:26:00,86.6,76.1,29.70,South,182,2.6,5.8,71,0.00,CLR,,0.77,135.0,WeatherDisplay:10.37,2013-08-06 23:26:00,
2013-08-06 18:27:00,86.8,76.7,29.69,SSE,161,0.9,3.5,72,0.00,CLR,,0.77,155.0,WeatherDisplay:10.37,2013-08-06 23:27:00,
2013-08-06 18:28:00,86.8,76.3,29.69,SSE,152,1.9,4.0,71,0.00,CLR,,0.77,146.0,WeatherDisplay:10.37,2013-08-06 23:28:00,
2013-08-06 18:29:00,86.8,76.3,29.69,SSW,192,2.6,3.5,71,0.00,CLR,,0.77,141.0,WeatherDisplay:10.37,2013-08-06 23:29:00,
2013-08-06 18:30:00,86.8,76.3,29.69,South,189,1.3,4.6,71,0.00,CLR,,0.77,137.0,WeatherDisplay:10.37,2013-08-06 23:30:00,
2013-08-06 18:31:00,86.9,76.4,29.69,SSE,155,1.6,3.5,71,0.00,CLR,,0.77,130.0,WeatherDisplay:10.37,2013-08-06 23:31:00,
2013-08-06 18:33:00,86.8,76.3,29.69,ESE,105,1.4,2.3,71,0.00,FEW,,0.77,113.0,WeatherDisplay:10.37,2013-08-06 23:33:00,
2013-08-06 18:34:00,86.8,75.8,29.70,South,184,1.1,3.5,70,0.00,SCT,,0.77,107.0,WeatherDisplay:10.37,2013-08-06 23:34:00,
2013-08-06 18:35:00,86.8,75.8,29.70,SW,223,1.4,2.3,70,0.00,SCT,,0.77,100.0,WeatherDisplay:10.37,2013-08-06 23:35:00,
2013-08-06 18:36:00,86.8,76.3,29.70,SSW,197,2.1,3.5,71,0.00,SCT,,0.77,84.0,WeatherDisplay:10.37,2013-08-06 23:36:00,
2013-08-06 18:38:00,86.7,75.7,29.70,SW,233,2.7,3.5,70,0.00,BKN,,0.77,72.0,WeatherDisplay:10.37,2013-08-06 23:38:00,
2013-08-06 18:39:00,86.7,76.2,29.70,SW,229,2.5,4.6,71,0.00,BKN,,0.77,72.0,WeatherDisplay:10.37,2013-08-06 23:39:00,
2013-08-06 18:40:00,86.6,76.1,29.70,SSW,203,2.0,3.5,71,0.00,BKN,,0.77,70.0,WeatherDisplay:10.37,2013-08-06 23:40:00,
2013-08-06 18:42:00,86.5,76.0,29.70,South,169,1.2,3.5,71,0.00,BKN,,0.77,67.0,WeatherDisplay:10.37,2013-08-06 23:42:00,
2013-08-06 18:43:00,86.5,76.0,29.70,SW,226,1.8,3.5,71,0.00,BKN,,0.77,67.0,WeatherDisplay:10.37,2013-08-06 23:43:00,
2013-08-06 18:44:00,86.5,76.4,29.70,SW,226,0.2,3.5,72,0.00,BKN,,0.77,63.0,WeatherDisplay:10.37,2013-08-06 23:44:00,
2013-08-06 18:45:00,86.5,76.0,29.70,WNW,284,1.2,2.3,71,0.00,BKN,,0.77,58.0,WeatherDisplay:10.37,2013-08-06 23:45:00,
2013-08-06 18:47:00,86.4,76.3,29.70,SSE,157,2.2,3.5,72,0.00,BKN,,0.77,53.0,WeatherDisplay:10.37,2013-08-06 23:47:00,
2013-08-06 18:48:00,86.3,76.2,29.70,SSE,157,0.8,2.3,72,0.00,BKN,,0.77,49.0,WeatherDisplay:10.37,2013-08-06 23:48:00,
2013-08-06 18:49:00,86.3,76.2,29.70,WNW,285,1.1,2.3,72,0.00,BKN,,0.77,49.0,WeatherDisplay:10.37,2013-08-06 23:49:00,
2013-08-06 18:50:00,86.3,76.6,29.70,South,178,1.1,2.3,73,0.00,BKN,,0.77,49.0,WeatherDisplay:10.37,2013-08-06 23:50:00,
2013-08-06 18:52:00,86.2,76.9,29.70,SSW,205,0.7,2.3,74,0.00,BKN,,0.77,49.0,WeatherDisplay:10.37,2013-08-06 23:52:00,
2013-08-06 18:54:00,86.1,76.8,29.70,SSE,159,0.4,2.3,74,0.00,BKN,,0.77,54.0,WeatherDisplay:10.37,2013-08-06 23:54:00,
2013-08-06 18:55:00,86.0,76.3,29.70,South,175,1.5,3.5,73,0.00,BKN,,0.77,60.0,WeatherDisplay:10.37,2013-08-06 23:55:00,
2013-08-06 18:56:00,86.0,76.7,29.70,South,175,1.1,3.5,74,0.00,BKN,,0.77,60.0,WeatherDisplay:10.37,2013-08-06 23:56:00,
2013-08-06 18:57:00,85.9,77.1,29.70,South,175,0.1,1.2,75,0.00,BKN,,0.77,62.0,WeatherDisplay:10.37,2013-08-06 23:57:00,
2013-08-06 18:59:00,85.8,76.5,29.70,South,187,0.9,2.0,74,0.00,BKN,,0.77,60.0,WeatherDisplay:10.37,2013-08-06 23:59:00,
2013-08-06 19:00:00,85.8,76.5,29.70,South,171,2.1,3.5,74,0.00,BKN,,0.77,58.0,WeatherDisplay:10.37,2013-08-07 00:00:00,
2013-08-06 19:01:00,85.8,76.5,29.70,South,176,2.6,4.0,74,0.00,BKN,,0.77,56.0,WeatherDisplay:10.37,2013-08-07 00:01:00,
2013-08-06 19:03:00,85.8,76.5,29.70,SSW,192,2.7,6.0,74,0.00,BKN,,0.77,56.0,WeatherDisplay:10.37,2013-08-07 00:03:00,
2013-08-06 19:04:00,85.8,76.5,29.70,SSE,162,3.2,6.9,74,0.00,BKN,,0.77,54.0,WeatherDisplay:10.37,2013-08-07 00:04:00,
2013-08-06 19:06:00,85.8,76.5,29.70,NE,36,1.1,5.8,74,0.00,BKN,,0.77,54.0,WeatherDisplay:10.37,2013-08-07 00:06:00,
2013-08-06 19:08:00,85.6,76.4,29.70,SSW,198,1.4,3.5,74,0.00,BKN,,0.77,56.0,WeatherDisplay:10.37,2013-08-07 00:08:00,
2013-08-06 19:09:00,85.6,76.4,29.70,SSW,203,1.8,4.6,74,0.00,BKN,,0.77,56.0,WeatherDisplay:10.37,2013-08-07 00:09:00,
2013-08-06 19:10:00,85.6,76.4,29.70,SSW,203,1.6,4.6,74,0.00,BKN,,0.77,56.0,WeatherDisplay:10.37,2013-08-07 00:10:00,
2013-08-06 19:11:00,85.6,76.8,29.69,SSE,157,1.8,4.6,75,0.00,BKN,,0.77,56.0,WeatherDisplay:10.37,2013-08-07 00:11:00,
2013-08-06 19:13:00,85.6,76.4,29.69,South,188,0.8,3.0,74,0.00,BKN,,0.77,65.0,WeatherDisplay:10.37,2013-08-07 00:13:00,
2013-08-06 19:15:00,85.6,76.4,29.69,South,180,2.6,4.6,74,0.00,BKN,,0.77,67.0,WeatherDisplay:10.37,2013-08-07 00:15:00,
2013-08-06 19:16:00,85.6,76.4,29.69,SSW,200,1.0,4.6,74,0.00,BKN,,0.77,65.0,WeatherDisplay:10.37,2013-08-07 00:16:00,
2013-08-06 19:17:00,85.6,76.8,29.69,SSW,200,0.6,2.0,75,0.00,BKN,,0.77,67.0,WeatherDisplay:10.37,2013-08-07 00:17:00,
2013-08-06 19:18:00,85.6,76.8,29.69,SSW,200,0.6,3.5,75,0.00,BKN,,0.77,72.0,WeatherDisplay:10.37,2013-08-07 00:18:00,
2013-08-06 19:20:00,85.5,76.7,29.69,SSW,200,0.0,0.0,75,0.00,BKN,,0.77,74.0,WeatherDisplay:10.37,2013-08-07 00:20:00,
2013-08-06 19:21:00,85.5,76.7,29.69,South,189,1.9,3.5,75,0.00,BKN,,0.77,72.0,WeatherDisplay:10.37,2013-08-07 00:21:00,
2013-08-06 19:22:00,85.6,76.8,29.69,South,189,0.6,3.5,75,0.00,BKN,,0.77,69.0,WeatherDisplay:10.37,2013-08-07 00:22:00,
2013-08-06 19:24:00,85.6,76.8,29.69,SSW,205,1.5,3.5,75,0.00,BKN,,0.77,69.0,WeatherDisplay:10.37,2013-08-07 00:24:00,
2013-08-06 19:25:00,85.7,76.9,29.69,SW,234,1.5,3.5,75,0.00,BKN,,0.77,69.0,WeatherDisplay:10.37,2013-08-07 00:25:00,
2013-08-06 19:26:00,85.8,77.0,29.69,SW,234,0.7,3.5,75,0.00,BKN,,0.77,67.0,WeatherDisplay:10.37,2013-08-07 00:26:00,
2013-08-06 19:27:00,85.8,77.0,29.69,SSE,165,2.8,2.8,75,0.00,BKN,,0.77,65.0,WeatherDisplay:10.37,2013-08-07 00:27:00,
2013-08-06 19:29:00,85.8,76.5,29.69,SSE,159,1.3,3.5,74,0.00,BKN,,0.77,62.0,WeatherDisplay:10.37,2013-08-07 00:29:00,
2013-08-06 19:30:00,85.8,77.0,29.70,SSW,205,0.2,2.3,75,0.00,BKN,,0.77,60.0,WeatherDisplay:10.37,2013-08-07 00:30:00,
2013-08-06 19:31:00,85.8,77.0,29.70,SSW,205,0.2,2.3,75,0.00,BKN,,0.77,58.0,WeatherDisplay:10.37,2013-08-07 00:31:00,
2013-08-06 19:32:00,85.7,76.5,29.70,SE,146,2.2,2.3,74,0.00,BKN,,0.77,56.0,WeatherDisplay:10.37,2013-08-07 00:32:00,
2013-08-06 19:34:00,85.7,76.5,29.70,SSW,192,1.1,2.3,74,0.00,BKN,,0.77,53.0,WeatherDisplay:10.37,2013-08-07 00:34:00,
2013-08-06 19:35:00,85.6,76.4,29.70,South,190,2.1,4.6,74,0.00,BKN,,0.77,46.0,WeatherDisplay:10.37,2013-08-07 00:35:00,
2013-08-06 19:36:00,85.5,75.9,29.70,SSW,192,3.8,4.6,73,0.00,BKN,,0.77,42.0,WeatherDisplay:10.37,2013-08-07 00:36:00,
2013-08-06 19:37:00,85.5,75.4,29.70,SSE,155,2.7,4.6,72,0.00,BKN,,0.77,39.0,WeatherDisplay:10.37,2013-08-07 00:37:00,
2013-08-06 19:38:00,85.4,75.8,29.70,South,172,0.7,4.6,73,0.00,BKN,,0.77,35.0,WeatherDisplay:10.37,2013-08-07 00:38:00,
2013-08-06 19:40:00,85.4,75.8,29.70,SSW,197,2.0,4.6,73,0.00,BKN,,0.77,28.0,WeatherDisplay:10.37,2013-08-07 00:40:00,
2013-08-06 19:41:00,85.3,75.7,29.70,SSE,165,0.7,2.3,73,0.00,BKN,,0.77,23.0,WeatherDisplay:10.37,2013-08-07 00:41:00,
2013-08-06 19:43:00,85.2,75.6,29.70,South,186,1.6,2.3,73,0.00,CLR,,0.77,21.0,WeatherDisplay:10.37,2013-08-07 00:43:00,
2013-08-06 19:45:00,85.1,75.5,29.70,SSW,202,2.3,3.0,73,0.00,CLR,,0.77,18.0,WeatherDisplay:10.37,2013-08-07 00:45:00,
2013-08-06 19:46:00,85.1,75.1,29.70,South,188,1.5,2.3,72,0.00,CLR,,0.77,16.0,WeatherDisplay:10.37,2013-08-07 00:46:00,
2013-08-06 19:48:00,85.0,75.4,29.70,SSW,195,0.1,2.3,73,0.00,CLR,,0.77,14.0,WeatherDisplay:10.37,2013-08-07 00:48:00,
2013-08-06 19:50:00,85.0,75.8,29.70,SSW,195,0.0,0.0,74,0.00,CLR,,0.77,14.0,WeatherDisplay:10.37,2013-08-07 00:50:00,
2013-08-06 19:51:00,84.9,75.3,29.70,SSW,195,0.1,0.0,73,0.00,CLR,,0.77,14.0,WeatherDisplay:10.37,2013-08-07 00:51:00,
2013-08-06 19:53:00,84.7,75.1,29.70,SSE,147,0.3,3.5,73,0.00,CLR,,0.77,12.0,WeatherDisplay:10.37,2013-08-07 00:53:00,
2013-08-06 19:55:00,84.5,74.9,29.70,SSE,147,0.1,1.2,73,0.00,CLR,,0.77,12.0,WeatherDisplay:10.37,2013-08-07 00:55:00,
2013-08-06 19:56:00,84.5,75.3,29.70,SSE,147,0.0,0.0,74,0.00,CLR,,0.77,12.0,WeatherDisplay:10.37,2013-08-07 00:56:00,
2013-08-06 19:57:00,84.4,75.6,29.70,SSE,147,0.0,0.0,75,0.00,CLR,,0.77,12.0,WeatherDisplay:10.37,2013-08-07 00:57:00,
2013-08-06 19:58:00,84.3,75.1,29.70,SSE,147,0.0,0.0,74,0.00,CLR,,0.77,12.0,WeatherDisplay:10.37,2013-08-07 00:58:00,
2013-08-06 20:00:00,84.1,75.3,29.70,SSE,147,0.1,1.2,75,0.00,CLR,,0.77,12.0,WeatherDisplay:10.37,2013-08-07 01:00:00,
2013-08-06 20:01:00,84.1,74.9,29.70,SSE,147,0.3,1.2,74,0.00,CLR,,0.77,12.0,WeatherDisplay:10.37,2013-08-07 01:01:00,
2013-08-06 20:02:00,84.0,74.8,29.70,SSE,147,0.1,1.2,74,0.00,CLR,,0.77,11.0,WeatherDisplay:10.37,2013-08-07 01:02:00,
2013-08-06 20:03:00,84.0,76.4,29.70,SSE,147,0.0,0.0,78,0.00,CLR,,0.77,11.0,WeatherDisplay:10.37,2013-08-07 01:03:00,
2013-08-06 20:04:00,84.0,76.4,29.70,SSE,147,0.0,0.0,78,0.00,CLR,,0.77,11.0,WeatherDisplay:10.37,2013-08-07 01:04:00,
2013-08-06 20:06:00,83.8,75.4,29.70,SSE,147,0.0,0.0,76,0.00,CLR,,0.77,11.0,WeatherDisplay:10.37,2013-08-07 01:06:00,
2013-08-06 20:07:00,83.6,75.2,29.70,SSE,147,0.0,0.0,76,0.00,CLR,,0.77,9.0,WeatherDisplay:10.37,2013-08-07 01:07:00,
2013-08-06 20:08:00,83.4,75.8,29.70,SSE,147,0.0,0.0,78,0.00,CLR,,0.77,9.0,WeatherDisplay:10.37,2013-08-07 01:08:00,
2013-08-06 20:09:00,83.4,75.8,29.70,SSE,147,0.0,0.0,78,0.00,CLR,,0.77,9.0,WeatherDisplay:10.37,2013-08-07 01:09:00,
2013-08-06 20:11:00,83.0,76.2,29.70,SSE,147,0.0,0.0,80,0.00,CLR,,0.77,7.0,WeatherDisplay:10.37,2013-08-07 01:11:00,
2013-08-06 20:12:00,82.9,76.5,29.70,SSE,147,0.0,0.0,81,0.00,CLR,,0.77,7.0,WeatherDisplay:10.37,2013-08-07 01:12:00,
2013-08-06 20:14:00,82.7,75.5,29.70,SSE,147,0.0,0.0,79,0.00,CLR,,0.77,5.0,WeatherDisplay:10.37,2013-08-07 01:14:00,
2013-08-06 20:16:00,82.5,75.3,29.70,SSE,147,0.0,0.0,79,0.00,CLR,,0.77,5.0,WeatherDisplay:10.37,2013-08-07 01:16:00,
2013-08-06 20:18:00,82.3,76.3,29.70,SSE,147,0.0,0.0,82,0.00,CLR,,0.77,0.0,WeatherDisplay:10.37,2013-08-07 01:18:00,
2013-08-06 20:19:00,82.2,75.4,29.70,SSE,147,0.0,0.0,80,0.00,CLR,,0.77,0.0,WeatherDisplay:10.37,2013-08-07 01:19:00,
2013-08-06 20:21:00,82.0,76.3,29.70,SSE,147,0.0,0.0,83,0.00,CLR,,0.77,0.0,WeatherDisplay:10.37,2013-08-07 01:21:00,
2013-08-06 20:22:00,82.0,76.3,29.70,SSE,147,0.0,0.0,83,0.00,CLR,,0.77,0.0,WeatherDisplay:10.37,2013-08-07 01:22:00,
2013-08-06 20:23:00,81.9,76.2,29.70,SSE,147,0.0,0.0,83,0.00,CLR,,0.77,0.0,WeatherDisplay:10.37,2013-08-07 01:23:00,
2013-08-06 20:24:00,81.8,76.1,29.71,SSE,147,0.0,0.0,83,0.00,CLR,,0.77,0.0,WeatherDisplay:10.37,2013-08-07 01:24:00,
2013-08-06 20:26:00,81.5,75.8,29.71,SSE,147,0.0,0.0,83,0.00,CLR,,0.77,0.0,WeatherDisplay:10.37,2013-08-07 01:26:00,
2013-08-06 20:27:00,81.4,76.1,29.71,SSE,147,0.0,0.0,84,0.00,CLR,,0.77,0.0,WeatherDisplay:10.37,2013-08-07 01:27:00,
2013-08-06 20:28:00,81.4,76.1,29.71,SSE,147,0.0,0.0,84,0.00,CLR,,0.77,0.0,WeatherDisplay:10.37,2013-08-07 01:28:00,
2013-08-06 20:29:00,81.2,75.9,29.71,SSE,147,0.0,0.0,84,0.00,CLR,,0.77,0.0,WeatherDisplay:10.37,2013-08-07 01:29:00,
2013-08-06 20:32:00,81.0,75.7,29.71,SSE,147,0.0,0.0,84,0.00,CLR,,0.77,0.0,WeatherDisplay:10.37,2013-08-07 01:32:00,
2013-08-06 20:33:00,80.8,75.2,29.71,SSE,147,0.0,0.0,83,0.00,CLR,,0.77,0.0,WeatherDisplay:10.37,2013-08-07 01:33:00,
2013-08-06 20:34:00,80.6,75.0,29.71,SSE,147,0.0,0.0,83,0.00,CLR,,0.77,0.0,WeatherDisplay:10.37,2013-08-07 01:34:00,
2013-08-06 20:37:00,80.5,75.2,29.71,SSE,147,0.0,0.0,84,0.00,CLR,,0.77,0.0,WeatherDisplay:10.37,2013-08-07 01:37:00,
2013-08-06 20:38:00,80.4,75.1,29.71,SSE,147,0.0,0.0,84,0.00,CLR,,0.77,0.0,WeatherDisplay:10.37,2013-08-07 01:38:00,
2013-08-06 20:39:00,80.4,75.1,29.71,SSE,147,0.0,0.0,84,0.00,CLR,,0.77,0.0,WeatherDisplay:10.37,2013-08-07 01:39:00,
2013-08-06 20:40:00,80.4,75.1,29.71,SSE,147,0.0,0.0,84,0.00,CLR,,0.77,0.0,WeatherDisplay:10.37,2013-08-07 01:40:00,
2013-08-06 20:42:00,80.3,75.0,29.71,SSE,147,0.0,0.0,84,0.00,CLR,,0.77,0.0,WeatherDisplay:10.37,2013-08-07 01:42:00,
2013-08-06 20:43:00,80.2,75.3,29.71,SSE,147,0.0,0.0,85,0.00,CLR,,0.77,0.0,WeatherDisplay:10.37,2013-08-07 01:43:00,
2013-08-06 20:45:00,80.1,75.2,29.71,SSE,147,0.0,0.0,85,0.00,CLR,,0.77,0.0,WeatherDisplay:10.37,2013-08-07 01:45:00,
2013-08-06 20:47:00,80.1,75.5,29.70,SSE,147,0.0,0.0,86,0.00,CLR,,0.77,0.0,WeatherDisplay:10.37,2013-08-07 01:47:00,
2013-08-06 20:48:00,80.1,75.5,29.70,SSE,147,0.0,0.0,86,0.00,CLR,,0.77,0.0,WeatherDisplay:10.37,2013-08-07 01:48:00,
2013-08-06 20:50:00,79.9,75.3,29.70,SSE,147,0.0,0.0,86,0.00,CLR,,0.77,0.0,WeatherDisplay:10.37,2013-08-07 01:50:00,
2013-08-06 20:53:00,79.7,75.1,29.70,SSE,147,0.0,0.0,86,0.00,CLR,,0.77,0.0,WeatherDisplay:10.37,2013-08-07 01:53:00,
2013-08-06 20:54:00,79.6,75.0,29.70,SSE,147,0.0,0.0,86,0.00,CLR,,0.77,0.0,WeatherDisplay:10.37,2013-08-07 01:54:00,
2013-08-06 20:55:00,79.6,75.0,29.71,SSE,147,0.0,0.0,86,0.00,CLR,,0.77,0.0,WeatherDisplay:10.37,2013-08-07 01:55:00,
2013-08-06 20:58:00,79.4,75.2,29.71,SSE,147,0.0,0.0,87,0.00,CLR,,0.77,0.0,WeatherDisplay:10.37,2013-08-07 01:58:00,
2013-08-06 20:59:00,79.4,75.2,29.71,SSE,147,0.0,0.0,87,0.00,CLR,,0.77,0.0,WeatherDisplay:10.37,2013-08-07 01:59:00,
2013-08-06 21:00:00,79.4,75.2,29.71,SSE,147,0.0,0.0,87,0.00,CLR,,0.77,0.0,WeatherDisplay:10.37,2013-08-07 02:00:00,
2013-08-06 21:01:00,79.3,75.1,29.71,SSE,147,0.0,0.0,87,0.00,CLR,,0.77,0.0,WeatherDisplay:10.37,2013-08-07 02:01:00,
2013-08-06 21:04:00,79.3,75.1,29.71,SSE,147,0.0,0.0,87,0.00,CLR,,0.77,0.0,WeatherDisplay:10.37,2013-08-07 02:04:00,
2013-08-06 21:05:00,79.2,75.0,29.71,SSE,147,0.0,0.0,87,0.00,CLR,,0.77,0.0,WeatherDisplay:10.37,2013-08-07 02:05:00,
2013-08-06 21:06:00,79.1,74.9,29.71,SSE,147,0.0,0.0,87,0.00,CLR,,0.77,0.0,WeatherDisplay:10.37,2013-08-07 02:06:00,
2013-08-06 21:09:00,78.9,75.0,29.71,SSE,147,0.0,0.0,88,0.00,CLR,,0.77,0.0,WeatherDisplay:10.37,2013-08-07 02:09:00,
2013-08-06 21:10:00,78.9,75.0,29.71,SSE,147,0.0,0.0,88,0.00,CLR,,0.77,0.0,WeatherDisplay:10.37,2013-08-07 02:10:00,
2013-08-06 21:11:00,78.8,74.9,29.71,SSE,147,0.0,0.0,88,0.00,CLR,,0.77,0.0,WeatherDisplay:10.37,2013-08-07 02:11:00,
2013-08-06 21:14:00,78.5,75.0,29.71,SSE,147,0.0,0.0,89,0.00,CLR,,0.77,0.0,WeatherDisplay:10.37,2013-08-07 02:14:00,
2013-08-06 21:15:00,78.4,74.9,29.71,SSE,147,0.0,0.0,89,0.00,CLR,,0.77,0.0,WeatherDisplay:10.37,2013-08-07 02:15:00,
2013-08-06 21:16:00,78.4,74.9,29.71,SSE,147,0.0,0.0,89,0.00,CLR,,0.77,0.0,WeatherDisplay:10.37,2013-08-07 02:16:00,
2013-08-06 21:19:00,78.3,75.1,29.72,SSE,147,0.0,0.0,90,0.00,CLR,,0.77,0.0,WeatherDisplay:10.37,2013-08-07 02:19:00,
2013-08-06 21:20:00,78.2,75.0,29.72,SSE,147,0.0,0.0,90,0.00,CLR,,0.77,0.0,WeatherDisplay:10.37,2013-08-07 02:20:00,
2013-08-06 21:21:00,78.2,75.0,29.72,SSE,147,0.0,0.0,90,0.00,CLR,,0.77,0.0,WeatherDisplay:10.37,2013-08-07 02:21:00,
2013-08-06 21:24:00,78.0,74.8,29.72,SSE,147,0.0,0.0,90,0.00,CLR,,0.77,0.0,WeatherDisplay:10.37,2013-08-07 02:24:00,
2013-08-06 21:25:00,78.0,74.8,29.72,SSE,147,0.0,0.0,90,0.00,CLR,,0.77,0.0,WeatherDisplay:10.37,2013-08-07 02:25:00,
2013-08-06 21:26:00,77.9,74.7,29.72,SSE,147,0.0,0.0,90,0.00,CLR,,0.77,0.0,WeatherDisplay:10.37,2013-08-07 02:26:00,
2013-08-06 21:27:00,77.9,74.7,29.72,SSE,147,0.0,0.0,90,0.00,CLR,,0.77,0.0,WeatherDisplay:10.37,2013-08-07 02:27:00,
2013-08-06 21:29:00,77.8,75.0,29.72,SSE,147,0.0,0.0,91,0.00,CLR,,0.77,0.0,WeatherDisplay:10.37,2013-08-07 02:29:00,
2013-08-06 21:30:00,77.8,75.0,29.72,SSE,147,0.0,0.0,91,0.00,CLR,,0.77,0.0,WeatherDisplay:10.37,2013-08-07 02:30:00,
2013-08-06 21:31:00,77.7,74.9,29.72,SSE,147,0.0,0.0,91,0.00,CLR,,0.77,0.0,WeatherDisplay:10.37,2013-08-07 02:31:00,
2013-08-06 21:32:00,77.7,74.9,29.72,SSE,147,0.0,0.0,91,0.00,CLR,,0.77,0.0,WeatherDisplay:10.37,2013-08-07 02:32:00,
2013-08-06 21:35:00,77.6,74.8,29.73,SSE,147,0.0,0.0,91,0.00,CLR,,0.77,0.0,WeatherDisplay:10.37,2013-08-07 02:35:00,
2013-08-06 21:36:00,77.6,74.8,29.73,SSE,147,0.0,0.0,91,0.00,CLR,,0.77,0.0,WeatherDisplay:10.37,2013-08-07 02:36:00,
2013-08-06 21:37:00,77.6,74.8,29.73,SSE,147,0.0,0.0,91,0.00,CLR,,0.77,0.0,WeatherDisplay:10.37,2013-08-07 02:37:00,
2013-08-06 21:40:00,77.6,74.8,29.73,SSE,147,0.0,0.0,91,0.00,CLR,,0.77,0.0,WeatherDisplay:10.37,2013-08-07 02:40:00,
2013-08-06 21:42:00,77.6,74.8,29.73,SSE,147,0.0,0.0,91,0.00,CLR,,0.77,0.0,WeatherDisplay:10.37,2013-08-07 02:42:00,
2013-08-06 21:45:00,77.6,74.8,29.74,SSE,147,0.0,0.0,91,0.00,CLR,,0.77,0.0,WeatherDisplay:10.37,2013-08-07 02:45:00,
2013-08-06 21:47:00,77.5,74.7,29.74,SSE,147,0.0,0.0,91,0.00,CLR,,0.77,0.0,WeatherDisplay:10.37,2013-08-07 02:47:00,
2013-08-06 21:50:00,77.4,74.9,29.74,SSE,147,0.0,0.0,92,0.00,CLR,,0.77,0.0,WeatherDisplay:10.37,2013-08-07 02:50:00,
2013-08-06 21:52:00,77.4,74.9,29.74,SSE,147,0.0,0.0,92,0.00,CLR,,0.77,0.0,WeatherDisplay:10.37,2013-08-07 02:52:00,
2013-08-06 21:53:00,77.4,74.9,29.74,SSE,147,0.0,0.0,92,0.00,CLR,,0.77,0.0,WeatherDisplay:10.37,2013-08-07 02:53:00,
2013-08-06 21:55:00,77.3,74.8,29.74,SSE,147,0.0,0.0,92,0.00,CLR,,0.77,0.0,WeatherDisplay:10.37,2013-08-07 02:55:00,
2013-08-06 21:57:00,77.2,74.7,29.74,SSE,147,0.0,0.0,92,0.00,CLR,,0.77,0.0,WeatherDisplay:10.37,2013-08-07 02:57:00,
2013-08-06 21:58:00,77.1,74.6,29.74,SSE,147,0.0,0.0,92,0.00,CLR,,0.77,0.0,WeatherDisplay:10.37,2013-08-07 02:58:00,
2013-08-06 22:00:00,77.1,74.9,29.74,SSE,147,0.0,0.0,93,0.00,CLR,,0.77,0.0,WeatherDisplay:10.37,2013-08-07 03:00:00,
2013-08-06 22:02:00,77.1,74.9,29.74,SSE,147,0.0,0.0,93,0.00,CLR,,0.77,0.0,WeatherDisplay:10.37,2013-08-07 03:02:00,
2013-08-06 22:03:00,77.0,74.8,29.74,SSE,147,0.0,0.0,93,0.00,CLR,,0.77,0.0,WeatherDisplay:10.37,2013-08-07 03:03:00,
2013-08-06 22:05:00,77.0,74.8,29.74,SSE,147,0.0,0.0,93,0.00,CLR,,0.77,0.0,WeatherDisplay:10.37,2013-08-07 03:05:00,
2013-08-06 22:06:00,77.1,74.9,29.74,SSE,147,0.0,0.0,93,0.00,CLR,,0.77,0.0,WeatherDisplay:10.37,2013-08-07 03:06:00,
2013-08-06 22:07:00,77.1,74.9,29.74,SSE,147,0.0,0.0,93,0.00,CLR,,0.77,0.0,WeatherDisplay:10.37,2013-08-07 03:07:00,
2013-08-06 22:08:00,77.1,74.9,29.74,SSE,147,0.0,0.0,93,0.00,CLR,,0.77,0.0,WeatherDisplay:10.37,2013-08-07 03:08:00,
2013-08-06 22:10:00,77.1,74.9,29.74,SSE,147,0.0,0.0,93,0.00,CLR,,0.77,0.0,WeatherDisplay:10.37,2013-08-07 03:10:00,
2013-08-06 22:11:00,77.1,74.9,29.74,SSE,147,0.0,0.0,93,0.00,CLR,,0.77,0.0,WeatherDisplay:10.37,2013-08-07 03:11:00,
2013-08-06 22:12:00,77.1,74.9,29.74,SSE,147,0.0,0.0,93,0.00,CLR,,0.77,0.0,WeatherDisplay:10.37,2013-08-07 03:12:00,
2013-08-06 22:13:00,77.1,74.9,29.74,SSE,147,0.0,0.0,93,0.00,CLR,,0.77,0.0,WeatherDisplay:10.37,2013-08-07 03:13:00,
2013-08-06 22:15:00,77.1,74.9,29.74,SSE,147,0.0,0.0,93,0.00,CLR,,0.77,0.0,WeatherDisplay:10.37,2013-08-07 03:15:00,
2013-08-06 22:16:00,77.1,74.9,29.74,SSE,147,0.0,0.0,93,0.00,CLR,,0.77,0.0,WeatherDisplay:10.37,2013-08-07 03:16:00,
2013-08-06 22:17:00,77.0,74.8,29.74,SSE,147,0.0,0.0,93,0.00,CLR,,0.77,0.0,WeatherDisplay:10.37,2013-08-07 03:17:00,
2013-08-06 22:18:00,77.0,74.8,29.74,SSE,147,0.0,0.0,93,0.00,CLR,,0.77,0.0,WeatherDisplay:10.37,2013-08-07 03:18:00,
2013-08-06 22:19:00,77.0,74.8,29.74,SSE,147,0.0,0.0,93,0.00,CLR,,0.77,0.0,WeatherDisplay:10.37,2013-08-07 03:19:00,
2013-08-06 22:20:00,77.0,74.8,29.74,SSE,147,0.0,0.0,93,0.00,CLR,,0.77,0.0,WeatherDisplay:10.37,2013-08-07 03:20:00,
2013-08-06 22:22:00,77.0,74.8,29.74,SSE,147,0.0,0.0,93,0.00,CLR,,0.77,0.0,WeatherDisplay:10.37,2013-08-07 03:22:00,
2013-08-06 22:23:00,76.9,74.7,29.74,SSE,147,0.0,0.0,93,0.00,CLR,,0.77,0.0,WeatherDisplay:10.37,2013-08-07 03:23:00,
2013-08-06 22:24:00,76.9,74.7,29.74,SSE,147,0.0,0.0,93,0.00,CLR,,0.77,0.0,WeatherDisplay:10.37,2013-08-07 03:24:00,
2013-08-06 22:25:00,76.9,74.7,29.74,SSE,147,0.0,0.0,93,0.00,CLR,,0.77,0.0,WeatherDisplay:10.37,2013-08-07 03:25:00,
2013-08-06 22:27:00,76.9,74.7,29.74,SSE,147,0.0,0.0,93,0.00,CLR,,0.77,0.0,WeatherDisplay:10.37,2013-08-07 03:27:00,
2013-08-06 22:28:00,76.9,74.7,29.74,SSE,147,0.0,0.0,93,0.00,CLR,,0.77,0.0,WeatherDisplay:10.37,2013-08-07 03:28:00,
2013-08-06 22:29:00,76.9,74.7,29.74,SSE,147,0.0,0.0,93,0.00,CLR,,0.77,0.0,WeatherDisplay:10.37,2013-08-07 03:29:00,
2013-08-06 22:30:00,76.9,74.7,29.74,SSE,147,0.0,0.0,93,0.00,CLR,,0.77,0.0,WeatherDisplay:10.37,2013-08-07 03:30:00,
2013-08-06 22:31:00,76.8,74.6,29.74,SSE,147,0.0,0.0,93,0.00,CLR,,0.77,0.0,WeatherDisplay:10.37,2013-08-07 03:31:00,
2013-08-06 22:32:00,76.8,74.6,29.74,SSE,147,0.0,0.0,93,0.00,CLR,,0.77,0.0,WeatherDisplay:10.37,2013-08-07 03:32:00,
2013-08-06 22:33:00,76.8,74.6,29.74,SSE,147,0.0,0.0,93,0.00,CLR,,0.77,0.0,WeatherDisplay:10.37,2013-08-07 03:33:00,
2013-08-06 22:34:00,76.8,74.6,29.74,SSE,147,0.0,0.0,93,0.00,CLR,,0.77,0.0,WeatherDisplay:10.37,2013-08-07 03:34:00,
2013-08-06 22:35:00,76.8,74.6,29.74,SSE,147,0.0,0.0,93,0.00,CLR,,0.77,0.0,WeatherDisplay:10.37,2013-08-07 03:35:00,
2013-08-06 22:36:00,76.8,74.6,29.74,SSE,147,0.0,0.0,93,0.00,CLR,,0.77,0.0,WeatherDisplay:10.37,2013-08-07 03:36:00,
2013-08-06 22:38:00,76.8,74.6,29.74,SSE,147,0.0,0.0,93,0.00,CLR,,0.77,0.0,WeatherDisplay:10.37,2013-08-07 03:38:00,
2013-08-06 22:39:00,76.8,74.6,29.74,SSE,147,0.0,0.0,93,0.00,CLR,,0.77,0.0,WeatherDisplay:10.37,2013-08-07 03:39:00,
2013-08-06 22:40:00,76.8,74.6,29.74,SSE,147,0.0,0.0,93,0.00,CLR,,0.77,0.0,WeatherDisplay:10.37,2013-08-07 03:40:00,
2013-08-06 22:41:00,76.8,74.9,29.74,SSE,147,0.0,0.0,94,0.00,CLR,,0.77,0.0,WeatherDisplay:10.37,2013-08-07 03:41:00,
2013-08-06 22:43:00,76.8,74.9,29.74,SSE,147,0.0,0.0,94,0.00,CLR,,0.77,0.0,WeatherDisplay:10.37,2013-08-07 03:43:00,
2013-08-06 22:44:00,76.8,74.9,29.74,SSE,147,0.0,0.0,94,0.00,CLR,,0.77,0.0,WeatherDisplay:10.37,2013-08-07 03:44:00,
2013-08-06 22:45:00,76.7,74.5,29.74,SSE,147,0.0,0.0,93,0.00,CLR,,0.77,0.0,WeatherDisplay:10.37,2013-08-07 03:45:00,
2013-08-06 22:46:00,76.7,74.5,29.74,SSE,147,0.0,0.0,93,0.00,CLR,,0.77,0.0,WeatherDisplay:10.37,2013-08-07 03:46:00,
2013-08-06 22:48:00,76.6,74.7,29.74,SSE,147,0.0,0.0,94,0.00,CLR,,0.77,0.0,WeatherDisplay:10.37,2013-08-07 03:48:00,
2013-08-06 22:49:00,76.5,74.6,29.74,SSE,147,0.0,0.0,94,0.00,CLR,,0.77,0.0,WeatherDisplay:10.37,2013-08-07 03:49:00,
2013-08-06 22:50:00,76.5,74.6,29.74,SSE,147,0.0,0.0,94,0.00,CLR,,0.77,0.0,WeatherDisplay:10.37,2013-08-07 03:50:00,
2013-08-06 22:51:00,76.5,74.6,29.74,SSE,147,0.0,0.0,94,0.00,CLR,,0.77,0.0,WeatherDisplay:10.37,2013-08-07 03:51:00,
2013-08-06 22:54:00,76.5,74.6,29.74,SSE,147,0.0,0.0,94,0.00,CLR,,0.77,0.0,WeatherDisplay:10.37,2013-08-07 03:54:00,
2013-08-06 22:55:00,76.5,74.6,29.74,SSE,147,0.0,0.0,94,0.00,CLR,,0.77,0.0,WeatherDisplay:10.37,2013-08-07 03:55:00,
2013-08-06 22:56:00,76.5,74.6,29.74,SSE,147,0.0,0.0,94,0.00,CLR,,0.77,0.0,WeatherDisplay:10.37,2013-08-07 03:56:00,
2013-08-06 22:59:00,76.5,74.6,29.74,SSE,147,0.0,0.0,94,0.00,CLR,,0.77,0.0,WeatherDisplay:10.37,2013-08-07 03:59:00,
2013-08-06 23:00:00,76.5,75.0,29.74,SSE,147,0.0,0.0,95,0.00,CLR,,0.77,0.0,WeatherDisplay:10.37,2013-08-07 04:00:00,
2013-08-06 23:01:00,76.5,74.6,29.74,SSE,147,0.0,0.0,94,0.00,CLR,,0.77,0.0,WeatherDisplay:10.37,2013-08-07 04:01:00,
2013-08-06 23:06:00,76.5,75.0,29.74,SSE,147,0.0,0.0,95,0.00,CLR,,0.77,0.0,WeatherDisplay:10.37,2013-08-07 04:06:00,
2013-08-06 23:07:00,76.5,75.0,29.74,SSE,147,0.0,0.0,95,0.00,CLR,,0.77,0.0,WeatherDisplay:10.37,2013-08-07 04:07:00,
2013-08-06 23:11:00,76.5,75.0,29.74,SSE,147,0.0,0.0,95,0.00,CLR,,0.77,0.0,WeatherDisplay:10.37,2013-08-07 04:11:00,
2013-08-06 23:12:00,76.5,75.0,29.74,SSE,147,0.0,0.0,95,0.00,CLR,,0.77,0.0,WeatherDisplay:10.37,2013-08-07 04:12:00,
2013-08-06 23:16:00,76.4,74.9,29.74,SSE,147,0.0,0.0,95,0.00,CLR,,0.77,0.0,WeatherDisplay:10.37,2013-08-07 04:16:00,
2013-08-06 23:17:00,76.4,74.9,29.74,SSE,147,0.0,0.0,95,0.00,CLR,,0.77,0.0,WeatherDisplay:10.37,2013-08-07 04:17:00,
2013-08-06 23:21:00,76.4,74.9,29.74,SSE,147,0.0,0.0,95,0.00,CLR,,0.77,0.0,WeatherDisplay:10.37,2013-08-07 04:21:00,
2013-08-06 23:22:00,76.4,74.9,29.74,SSE,147,0.0,0.0,95,0.00,CLR,,0.77,0.0,WeatherDisplay:10.37,2013-08-07 04:22:00,
2013-08-06 23:26:00,76.4,74.9,29.74,SSE,147,0.0,0.0,95,0.00,CLR,,0.77,0.0,WeatherDisplay:10.37,2013-08-07 04:26:00,
2013-08-06 23:27:00,76.4,74.9,29.74,SSE,147,0.0,0.0,95,0.00,CLR,,0.77,0.0,WeatherDisplay:10.37,2013-08-07 04:27:00,
2013-08-06 23:28:00,76.4,74.9,29.74,SSE,147,0.0,0.0,95,0.00,CLR,,0.77,0.0,WeatherDisplay:10.37,2013-08-07 04:28:00,
2013-08-06 23:31:00,76.4,74.9,29.74,SSE,147,0.0,0.0,95,0.00,CLR,,0.77,0.0,WeatherDisplay:10.37,2013-08-07 04:31:00,
2013-08-06 23:32:00,76.4,74.9,29.74,SSE,147,0.0,0.0,95,0.00,CLR,,0.77,0.0,WeatherDisplay:10.37,2013-08-07 04:32:00,
2013-08-06 23:33:00,76.4,74.9,29.74,SSE,147,0.0,0.0,95,0.00,CLR,,0.77,0.0,WeatherDisplay:10.37,2013-08-07 04:33:00,
2013-08-06 23:36:00,76.4,74.9,29.74,SSE,147,0.0,0.0,95,0.00,CLR,,0.77,0.0,WeatherDisplay:10.37,2013-08-07 04:36:00,
2013-08-06 23:37:00,76.4,74.9,29.74,SSE,147,0.0,0.0,95,0.00,CLR,,0.77,0.0,WeatherDisplay:10.37,2013-08-07 04:37:00,
2013-08-06 23:38:00,76.4,74.9,29.74,SSE,147,0.0,0.0,95,0.00,CLR,,0.77,0.0,WeatherDisplay:10.37,2013-08-07 04:38:00,
2013-08-06 23:41:00,76.3,74.8,29.75,SSE,147,0.0,0.0,95,0.00,CLR,,0.77,0.0,WeatherDisplay:10.37,2013-08-07 04:41:00,
2013-08-06 23:42:00,76.4,74.9,29.75,SSE,147,0.0,0.0,95,0.00,CLR,,0.77,0.0,WeatherDisplay:10.37,2013-08-07 04:42:00,
2013-08-06 23:43:00,76.4,74.9,29.75,SSE,147,0.0,0.0,95,0.00,CLR,,0.77,0.0,WeatherDisplay:10.37,2013-08-07 04:43:00,
2013-08-06 23:46:00,76.5,75.0,29.75,SSE,147,0.0,0.0,95,0.00,CLR,,0.77,0.0,WeatherDisplay:10.37,2013-08-07 04:46:00,
2013-08-06 23:47:00,76.5,75.0,29.75,SSE,147,0.0,0.0,95,0.00,CLR,,0.77,0.0,WeatherDisplay:10.37,2013-08-07 04:47:00,
2013-08-06 23:48:00,76.5,75.0,29.75,SSE,147,0.0,0.0,95,0.00,CLR,,0.77,0.0,WeatherDisplay:10.37,2013-08-07 04:48:00,
2013-08-06 23:49:00,76.5,75.0,29.75,SSE,147,0.0,0.0,95,0.00,CLR,,0.77,0.0,WeatherDisplay:10.37,2013-08-07 04:49:00,
2013-08-06 23:52:00,76.5,74.6,29.75,SSE,147,0.0,0.0,94,0.00,CLR,,0.77,0.0,WeatherDisplay:10.37,2013-08-07 04:52:00,
2013-08-06 23:53:00,76.5,74.6,29.75,SSE,147,0.0,0.0,94,0.00,CLR,,0.77,0.0,WeatherDisplay:10.37,2013-08-07 04:53:00,
2013-08-06 23:54:00,76.5,74.6,29.75,SSE,147,0.0,0.0,94,0.00,CLR,,0.77,0.0,WeatherDisplay:10.37,2013-08-07 04:54:00,
2013-08-06 23:57:00,76.6,74.7,29.75,SSE,147,0.0,1.2,94,0.00,CLR,,0.77,0.0,WeatherDisplay:10.37,2013-08-07 04:57:00,
2013-08-06 23:58:00,76.6,74.7,29.75,SSE,147,0.0,0.0,94,0.00,CLR,,0.77,0.0,WeatherDisplay:10.37,2013-08-07 04:58:00,
2013-08-06 23:59:00,76.6,74.7,29.75,SSE,147,0.0,0.0,94,0.00,CLR,,0.77,0.0,WeatherDisplay:10.37,2013-08-07 04:59:00,